<?xml version="1.0" encoding="UTF-8" standalone="no" ?>
<gpx xmlns="http://www.topografix.com/GPX/1/1" xmlns:xsi="http://www.w3.org/2001/XMLSchema-instance" xsi:schemaLocation="http://www.topografix.com/GPX/1/1 http://www.topografix.com/GPX/1/1/gpx.xsd" version="1.1" creator="VisuGPX - https://www.visugpx.com">
  <metadata>
    <name>VTTCoeurdePays</name>
    <desc><![CDATA[CIRCUIT VTT - COEUR DE PAYS-  35.74 km, dénivelé positif cumulé 739 m
Parcours VTT Difficile
Au coeur du Lot-et-Garonne]]></desc>
  </metadata>
  <trk>
    <name><![CDATA[VTTCoeurdePays]]></name>
    <trkseg>
      <trkpt lat="44.28817" lon="0.50998">
        <ele>170</ele>
        <time>2007-03-25T13:01:07Z</time>
      </trkpt>
      <trkpt lat="44.28827" lon="0.5102">
        <ele>170</ele>
        <time>2007-03-25T13:01:07Z</time>
      </trkpt>
      <trkpt lat="44.28874" lon="0.51093">
        <ele>170</ele>
        <time>2007-03-25T13:01:07Z</time>
      </trkpt>
      <trkpt lat="44.28875" lon="0.51118">
        <ele>169</ele>
        <time>2007-03-25T13:01:07Z</time>
      </trkpt>
      <trkpt lat="44.28886" lon="0.51143">
        <ele>168</ele>
        <time>2007-03-25T13:01:07Z</time>
      </trkpt>
      <trkpt lat="44.28921" lon="0.51168">
        <ele>169</ele>
        <time>2007-03-25T13:01:07Z</time>
      </trkpt>
      <trkpt lat="44.28945" lon="0.51197">
        <ele>170</ele>
        <time>2007-03-25T13:01:07Z</time>
      </trkpt>
      <trkpt lat="44.29012" lon="0.51158">
        <ele>171</ele>
        <time>2007-03-25T13:01:07Z</time>
      </trkpt>
      <trkpt lat="44.29014" lon="0.5122">
        <ele>173</ele>
        <time>2007-03-25T13:01:07Z</time>
      </trkpt>
      <trkpt lat="44.29014" lon="0.51302">
        <ele>175</ele>
        <time>2007-03-25T13:01:07Z</time>
      </trkpt>
      <trkpt lat="44.2901" lon="0.51353">
        <ele>175</ele>
        <time>2007-03-25T13:01:07Z</time>
      </trkpt>
      <trkpt lat="44.29009" lon="0.51375">
        <ele>175</ele>
        <time>2007-03-25T13:01:07Z</time>
      </trkpt>
      <trkpt lat="44.29005" lon="0.51404">
        <ele>175</ele>
        <time>2007-03-25T13:01:07Z</time>
      </trkpt>
      <trkpt lat="44.29004" lon="0.51424">
        <ele>174</ele>
        <time>2007-03-25T13:01:07Z</time>
      </trkpt>
      <trkpt lat="44.29013" lon="0.51439">
        <ele>174</ele>
        <time>2007-03-25T13:01:07Z</time>
      </trkpt>
      <trkpt lat="44.29054" lon="0.51477">
        <ele>171</ele>
        <time>2007-03-25T13:01:07Z</time>
      </trkpt>
      <trkpt lat="44.2907" lon="0.51499">
        <ele>168</ele>
        <time>2007-03-25T13:01:07Z</time>
      </trkpt>
      <trkpt lat="44.29076" lon="0.51509">
        <ele>167</ele>
        <time>2007-03-25T13:01:07Z</time>
      </trkpt>
      <trkpt lat="44.2908" lon="0.51523">
        <ele>166</ele>
        <time>2007-03-25T13:01:07Z</time>
      </trkpt>
      <trkpt lat="44.29075" lon="0.51544">
        <ele>163</ele>
        <time>2007-03-25T13:01:07Z</time>
      </trkpt>
      <trkpt lat="44.29116" lon="0.51599">
        <ele>157</ele>
        <time>2007-03-25T13:01:07Z</time>
      </trkpt>
      <trkpt lat="44.29157" lon="0.51591">
        <ele>160</ele>
        <time>2007-03-25T13:01:07Z</time>
      </trkpt>
      <trkpt lat="44.29179" lon="0.51597">
        <ele>161</ele>
        <time>2007-03-25T13:01:07Z</time>
      </trkpt>
      <trkpt lat="44.29199" lon="0.51613">
        <ele>162</ele>
        <time>2007-03-25T13:01:07Z</time>
      </trkpt>
      <trkpt lat="44.29235" lon="0.51659">
        <ele>164</ele>
        <time>2007-03-25T13:01:07Z</time>
      </trkpt>
      <trkpt lat="44.29297" lon="0.51756">
        <ele>164</ele>
        <time>2007-03-25T13:01:07Z</time>
      </trkpt>
      <trkpt lat="44.29349" lon="0.51831">
        <ele>165</ele>
        <time>2007-03-25T13:01:07Z</time>
      </trkpt>
      <trkpt lat="44.29365" lon="0.51862">
        <ele>166</ele>
        <time>2007-03-25T13:01:07Z</time>
      </trkpt>
      <trkpt lat="44.29375" lon="0.51896">
        <ele>168</ele>
        <time>2007-03-25T13:01:07Z</time>
      </trkpt>
      <trkpt lat="44.2938" lon="0.51924">
        <ele>170</ele>
        <time>2007-03-25T13:01:07Z</time>
      </trkpt>
      <trkpt lat="44.29382" lon="0.51958">
        <ele>172</ele>
        <time>2007-03-25T13:01:07Z</time>
      </trkpt>
      <trkpt lat="44.29381" lon="0.51993">
        <ele>174</ele>
        <time>2007-03-25T13:01:07Z</time>
      </trkpt>
      <trkpt lat="44.29388" lon="0.52016">
        <ele>175</ele>
        <time>2007-03-25T13:01:07Z</time>
      </trkpt>
      <trkpt lat="44.29406" lon="0.52051">
        <ele>176</ele>
        <time>2007-03-25T13:01:07Z</time>
      </trkpt>
      <trkpt lat="44.29427" lon="0.52098">
        <ele>177</ele>
        <time>2007-03-25T13:01:07Z</time>
      </trkpt>
      <trkpt lat="44.29433" lon="0.52118">
        <ele>177</ele>
        <time>2007-03-25T13:01:07Z</time>
      </trkpt>
      <trkpt lat="44.29435" lon="0.52147">
        <ele>177</ele>
        <time>2007-03-25T13:01:07Z</time>
      </trkpt>
      <trkpt lat="44.2943" lon="0.5218">
        <ele>177</ele>
        <time>2007-03-25T13:01:07Z</time>
      </trkpt>
      <trkpt lat="44.29422" lon="0.52235">
        <ele>175</ele>
        <time>2007-03-25T13:01:07Z</time>
      </trkpt>
      <trkpt lat="44.29419" lon="0.52272">
        <ele>174</ele>
        <time>2007-03-25T13:01:07Z</time>
      </trkpt>
      <trkpt lat="44.29419" lon="0.52422">
        <ele>173</ele>
        <time>2007-03-25T13:01:07Z</time>
      </trkpt>
      <trkpt lat="44.294" lon="0.52435">
        <ele>172</ele>
        <time>2007-03-25T13:01:07Z</time>
      </trkpt>
      <trkpt lat="44.29388" lon="0.52453">
        <ele>172</ele>
        <time>2007-03-25T13:01:07Z</time>
      </trkpt>
      <trkpt lat="44.29367" lon="0.52489">
        <ele>171</ele>
        <time>2007-03-25T13:01:07Z</time>
      </trkpt>
      <trkpt lat="44.29309" lon="0.52591">
        <ele>172</ele>
        <time>2007-03-25T13:01:07Z</time>
      </trkpt>
      <trkpt lat="44.29284" lon="0.52623">
        <ele>173</ele>
        <time>2007-03-25T13:01:07Z</time>
      </trkpt>
      <trkpt lat="44.29273" lon="0.52636">
        <ele>174</ele>
        <time>2007-03-25T13:01:07Z</time>
      </trkpt>
      <trkpt lat="44.29294" lon="0.52698">
        <ele>178</ele>
        <time>2007-03-25T13:01:07Z</time>
      </trkpt>
      <trkpt lat="44.29313" lon="0.52749">
        <ele>178</ele>
        <time>2007-03-25T13:01:07Z</time>
      </trkpt>
      <trkpt lat="44.29343" lon="0.52814">
        <ele>174</ele>
        <time>2007-03-25T13:01:07Z</time>
      </trkpt>
      <trkpt lat="44.29367" lon="0.52859">
        <ele>167</ele>
        <time>2007-03-25T13:01:07Z</time>
      </trkpt>
      <trkpt lat="44.29395" lon="0.52844">
        <ele>167</ele>
        <time>2007-03-25T13:01:07Z</time>
      </trkpt>
      <trkpt lat="44.29423" lon="0.52843">
        <ele>166</ele>
        <time>2007-03-25T13:01:07Z</time>
      </trkpt>
      <trkpt lat="44.29459" lon="0.52845">
        <ele>165</ele>
        <time>2007-03-25T13:01:07Z</time>
      </trkpt>
      <trkpt lat="44.29493" lon="0.52837">
        <ele>166</ele>
        <time>2007-03-25T13:01:07Z</time>
      </trkpt>
      <trkpt lat="44.29516" lon="0.52827">
        <ele>167</ele>
        <time>2007-03-25T13:01:07Z</time>
      </trkpt>
      <trkpt lat="44.29532" lon="0.52822">
        <ele>169</ele>
        <time>2007-03-25T13:01:07Z</time>
      </trkpt>
      <trkpt lat="44.29551" lon="0.52826">
        <ele>170</ele>
        <time>2007-03-25T13:01:07Z</time>
      </trkpt>
      <trkpt lat="44.29573" lon="0.5284">
        <ele>171</ele>
        <time>2007-03-25T13:01:07Z</time>
      </trkpt>
      <trkpt lat="44.29594" lon="0.52878">
        <ele>171</ele>
        <time>2007-03-25T13:01:07Z</time>
      </trkpt>
      <trkpt lat="44.29615" lon="0.52926">
        <ele>175</ele>
        <time>2007-03-25T13:01:07Z</time>
      </trkpt>
      <trkpt lat="44.29615" lon="0.52926">
        <ele>175</ele>
        <time>2007-03-25T13:01:07Z</time>
      </trkpt>
      <trkpt lat="44.29696" lon="0.53">
        <ele>181</ele>
        <time>2007-03-25T13:01:07Z</time>
      </trkpt>
      <trkpt lat="44.29717" lon="0.53074">
        <ele>178</ele>
        <time>2007-03-25T13:01:07Z</time>
      </trkpt>
      <trkpt lat="44.29716" lon="0.531">
        <ele>176</ele>
        <time>2007-03-25T13:01:07Z</time>
      </trkpt>
      <trkpt lat="44.29694" lon="0.53116">
        <ele>176</ele>
        <time>2007-03-25T13:01:07Z</time>
      </trkpt>
      <trkpt lat="44.29633" lon="0.53157">
        <ele>176</ele>
        <time>2007-03-25T13:01:07Z</time>
      </trkpt>
      <trkpt lat="44.29618" lon="0.53172">
        <ele>176</ele>
        <time>2007-03-25T13:01:07Z</time>
      </trkpt>
      <trkpt lat="44.29613" lon="0.5319">
        <ele>175</ele>
        <time>2007-03-25T13:01:07Z</time>
      </trkpt>
      <trkpt lat="44.29612" lon="0.53222">
        <ele>171</ele>
        <time>2007-03-25T13:01:07Z</time>
      </trkpt>
      <trkpt lat="44.29608" lon="0.53256">
        <ele>167</ele>
        <time>2007-03-25T13:01:07Z</time>
      </trkpt>
      <trkpt lat="44.29597" lon="0.5328">
        <ele>165</ele>
        <time>2007-03-25T13:01:07Z</time>
      </trkpt>
      <trkpt lat="44.29581" lon="0.53309">
        <ele>164</ele>
        <time>2007-03-25T13:01:07Z</time>
      </trkpt>
      <trkpt lat="44.29561" lon="0.53331">
        <ele>164</ele>
        <time>2007-03-25T13:01:07Z</time>
      </trkpt>
      <trkpt lat="44.29549" lon="0.53335">
        <ele>166</ele>
        <time>2007-03-25T13:01:07Z</time>
      </trkpt>
      <trkpt lat="44.29529" lon="0.53329">
        <ele>171</ele>
        <time>2007-03-25T13:01:07Z</time>
      </trkpt>
      <trkpt lat="44.29501" lon="0.53321">
        <ele>174</ele>
        <time>2007-03-25T13:01:07Z</time>
      </trkpt>
      <trkpt lat="44.29485" lon="0.53332">
        <ele>174</ele>
        <time>2007-03-25T13:01:07Z</time>
      </trkpt>
      <trkpt lat="44.29474" lon="0.53358">
        <ele>172</ele>
        <time>2007-03-25T13:01:07Z</time>
      </trkpt>
      <trkpt lat="44.29448" lon="0.53442">
        <ele>165</ele>
        <time>2007-03-25T13:01:07Z</time>
      </trkpt>
      <trkpt lat="44.29415" lon="0.5348">
        <ele>161</ele>
        <time>2007-03-25T13:01:07Z</time>
      </trkpt>
      <trkpt lat="44.29401" lon="0.53515">
        <ele>159</ele>
        <time>2007-03-25T13:01:07Z</time>
      </trkpt>
      <trkpt lat="44.29393" lon="0.53543">
        <ele>156</ele>
        <time>2007-03-25T13:01:07Z</time>
      </trkpt>
      <trkpt lat="44.2939" lon="0.53576">
        <ele>153</ele>
        <time>2007-03-25T13:01:07Z</time>
      </trkpt>
      <trkpt lat="44.29389" lon="0.53614">
        <ele>148</ele>
        <time>2007-03-25T13:01:07Z</time>
      </trkpt>
      <trkpt lat="44.29389" lon="0.53648">
        <ele>143</ele>
        <time>2007-03-25T13:01:07Z</time>
      </trkpt>
      <trkpt lat="44.29401" lon="0.53692">
        <ele>135</ele>
        <time>2007-03-25T13:01:07Z</time>
      </trkpt>
      <trkpt lat="44.29404" lon="0.5374">
        <ele>126</ele>
        <time>2007-03-25T13:01:07Z</time>
      </trkpt>
      <trkpt lat="44.29377" lon="0.53777">
        <ele>126</ele>
        <time>2007-03-25T13:01:07Z</time>
      </trkpt>
      <trkpt lat="44.29366" lon="0.53809">
        <ele>124</ele>
        <time>2007-03-25T13:01:07Z</time>
      </trkpt>
      <trkpt lat="44.29365" lon="0.53829">
        <ele>121</ele>
        <time>2007-03-25T13:01:07Z</time>
      </trkpt>
      <trkpt lat="44.29367" lon="0.53853">
        <ele>118</ele>
        <time>2007-03-25T13:01:07Z</time>
      </trkpt>
      <trkpt lat="44.2935" lon="0.53881">
        <ele>114</ele>
        <time>2007-03-25T13:01:07Z</time>
      </trkpt>
      <trkpt lat="44.29341" lon="0.53907">
        <ele>108</ele>
        <time>2007-03-25T13:01:07Z</time>
      </trkpt>
      <trkpt lat="44.29374" lon="0.53934">
        <ele>104</ele>
        <time>2007-03-25T13:01:07Z</time>
      </trkpt>
      <trkpt lat="44.294" lon="0.53949">
        <ele>102</ele>
        <time>2007-03-25T13:01:07Z</time>
      </trkpt>
      <trkpt lat="44.29411" lon="0.53953">
        <ele>101</ele>
        <time>2007-03-25T13:01:07Z</time>
      </trkpt>
      <trkpt lat="44.29426" lon="0.53954">
        <ele>100</ele>
        <time>2007-03-25T13:01:07Z</time>
      </trkpt>
      <trkpt lat="44.29423" lon="0.53971">
        <ele>98</ele>
        <time>2007-03-25T13:01:07Z</time>
      </trkpt>
      <trkpt lat="44.29429" lon="0.54001">
        <ele>96</ele>
        <time>2007-03-25T13:01:07Z</time>
      </trkpt>
      <trkpt lat="44.29415" lon="0.54047">
        <ele>94</ele>
        <time>2007-03-25T13:01:07Z</time>
      </trkpt>
      <trkpt lat="44.29408" lon="0.54072">
        <ele>93</ele>
        <time>2007-03-25T13:01:07Z</time>
      </trkpt>
      <trkpt lat="44.29394" lon="0.54085">
        <ele>92</ele>
        <time>2007-03-25T13:01:07Z</time>
      </trkpt>
      <trkpt lat="44.29384" lon="0.54068">
        <ele>92</ele>
        <time>2007-03-25T13:01:07Z</time>
      </trkpt>
      <trkpt lat="44.29357" lon="0.54053">
        <ele>91</ele>
        <time>2007-03-25T13:01:07Z</time>
      </trkpt>
      <trkpt lat="44.29343" lon="0.5404">
        <ele>91</ele>
        <time>2007-03-25T13:01:07Z</time>
      </trkpt>
      <trkpt lat="44.29326" lon="0.54039">
        <ele>90</ele>
        <time>2007-03-25T13:01:07Z</time>
      </trkpt>
      <trkpt lat="44.29307" lon="0.54031">
        <ele>89</ele>
        <time>2007-03-25T13:01:07Z</time>
      </trkpt>
      <trkpt lat="44.29261" lon="0.54035">
        <ele>88</ele>
        <time>2007-03-25T13:01:07Z</time>
      </trkpt>
      <trkpt lat="44.29351" lon="0.54147">
        <ele>89</ele>
        <time>2007-03-25T13:01:07Z</time>
      </trkpt>
      <trkpt lat="44.29275" lon="0.54236">
        <ele>88</ele>
        <time>2007-03-25T13:01:07Z</time>
      </trkpt>
      <trkpt lat="44.29239" lon="0.54272">
        <ele>89</ele>
        <time>2007-03-25T13:01:07Z</time>
      </trkpt>
      <trkpt lat="44.29221" lon="0.54292">
        <ele>89</ele>
        <time>2007-03-25T13:01:07Z</time>
      </trkpt>
      <trkpt lat="44.29094" lon="0.54462">
        <ele>91</ele>
        <time>2007-03-25T13:01:07Z</time>
      </trkpt>
      <trkpt lat="44.29101" lon="0.54508">
        <ele>93</ele>
        <time>2007-03-25T13:01:07Z</time>
      </trkpt>
      <trkpt lat="44.29095" lon="0.54538">
        <ele>95</ele>
        <time>2007-03-25T13:01:07Z</time>
      </trkpt>
      <trkpt lat="44.29092" lon="0.54566">
        <ele>96</ele>
        <time>2007-03-25T13:01:07Z</time>
      </trkpt>
      <trkpt lat="44.29084" lon="0.54622">
        <ele>98</ele>
        <time>2007-03-25T13:01:07Z</time>
      </trkpt>
      <trkpt lat="44.29061" lon="0.54644">
        <ele>101</ele>
        <time>2007-03-25T13:01:07Z</time>
      </trkpt>
      <trkpt lat="44.29016" lon="0.54681">
        <ele>108</ele>
        <time>2007-03-25T13:01:07Z</time>
      </trkpt>
      <trkpt lat="44.28984" lon="0.54701">
        <ele>112</ele>
        <time>2007-03-25T13:01:07Z</time>
      </trkpt>
      <trkpt lat="44.28955" lon="0.54733">
        <ele>118</ele>
        <time>2007-03-25T13:01:07Z</time>
      </trkpt>
      <trkpt lat="44.2894" lon="0.54755">
        <ele>123</ele>
        <time>2007-03-25T13:01:07Z</time>
      </trkpt>
      <trkpt lat="44.28929" lon="0.54778">
        <ele>125</ele>
        <time>2007-03-25T13:01:07Z</time>
      </trkpt>
      <trkpt lat="44.28913" lon="0.54814">
        <ele>129</ele>
        <time>2007-03-25T13:01:07Z</time>
      </trkpt>
      <trkpt lat="44.28898" lon="0.54838">
        <ele>133</ele>
        <time>2007-03-25T13:01:07Z</time>
      </trkpt>
      <trkpt lat="44.28874" lon="0.5487">
        <ele>140</ele>
        <time>2007-03-25T13:01:07Z</time>
      </trkpt>
      <trkpt lat="44.28833" lon="0.549">
        <ele>149</ele>
        <time>2007-03-25T13:01:07Z</time>
      </trkpt>
      <trkpt lat="44.28834" lon="0.54939">
        <ele>149</ele>
        <time>2007-03-25T13:01:07Z</time>
      </trkpt>
      <trkpt lat="44.28834" lon="0.5497">
        <ele>150</ele>
        <time>2007-03-25T13:01:07Z</time>
      </trkpt>
      <trkpt lat="44.28827" lon="0.55023">
        <ele>152</ele>
        <time>2007-03-25T13:01:07Z</time>
      </trkpt>
      <trkpt lat="44.28811" lon="0.55055">
        <ele>155</ele>
        <time>2007-03-25T13:01:07Z</time>
      </trkpt>
      <trkpt lat="44.2879" lon="0.55072">
        <ele>158</ele>
        <time>2007-03-25T13:01:07Z</time>
      </trkpt>
      <trkpt lat="44.28758" lon="0.55068">
        <ele>165</ele>
        <time>2007-03-25T13:01:07Z</time>
      </trkpt>
      <trkpt lat="44.28734" lon="0.55087">
        <ele>169</ele>
        <time>2007-03-25T13:01:07Z</time>
      </trkpt>
      <trkpt lat="44.28721" lon="0.55096">
        <ele>171</ele>
        <time>2007-03-25T13:01:07Z</time>
      </trkpt>
      <trkpt lat="44.28701" lon="0.55112">
        <ele>174</ele>
        <time>2007-03-25T13:01:07Z</time>
      </trkpt>
      <trkpt lat="44.2866" lon="0.55179">
        <ele>177</ele>
        <time>2007-03-25T13:01:07Z</time>
      </trkpt>
      <trkpt lat="44.2863" lon="0.55211">
        <ele>177</ele>
        <time>2007-03-25T13:01:07Z</time>
      </trkpt>
      <trkpt lat="44.28618" lon="0.55226">
        <ele>178</ele>
        <time>2007-03-25T13:01:07Z</time>
      </trkpt>
      <trkpt lat="44.28604" lon="0.55256">
        <ele>178</ele>
        <time>2007-03-25T13:01:07Z</time>
      </trkpt>
      <trkpt lat="44.28588" lon="0.55294">
        <ele>178</ele>
        <time>2007-03-25T13:01:07Z</time>
      </trkpt>
      <trkpt lat="44.28561" lon="0.55321">
        <ele>178</ele>
        <time>2007-03-25T13:01:07Z</time>
      </trkpt>
      <trkpt lat="44.28399" lon="0.55413">
        <ele>177</ele>
        <time>2007-03-25T13:01:07Z</time>
      </trkpt>
      <trkpt lat="44.28169" lon="0.55562">
        <ele>175</ele>
        <time>2007-03-25T13:01:07Z</time>
      </trkpt>
      <trkpt lat="44.28134" lon="0.55592">
        <ele>174</ele>
        <time>2007-03-25T13:01:07Z</time>
      </trkpt>
      <trkpt lat="44.28114" lon="0.55598">
        <ele>172</ele>
        <time>2007-03-25T13:01:07Z</time>
      </trkpt>
      <trkpt lat="44.28095" lon="0.55596">
        <ele>169</ele>
        <time>2007-03-25T13:01:07Z</time>
      </trkpt>
      <trkpt lat="44.28031" lon="0.5557">
        <ele>158</ele>
        <time>2007-03-25T13:01:07Z</time>
      </trkpt>
      <trkpt lat="44.2799" lon="0.55552">
        <ele>152</ele>
        <time>2007-03-25T13:01:07Z</time>
      </trkpt>
      <trkpt lat="44.27969" lon="0.55539">
        <ele>149</ele>
        <time>2007-03-25T13:01:07Z</time>
      </trkpt>
      <trkpt lat="44.27946" lon="0.55533">
        <ele>147</ele>
        <time>2007-03-25T13:01:07Z</time>
      </trkpt>
      <trkpt lat="44.2793" lon="0.5554">
        <ele>145</ele>
        <time>2007-03-25T13:01:07Z</time>
      </trkpt>
      <trkpt lat="44.27919" lon="0.55567">
        <ele>144</ele>
        <time>2007-03-25T13:01:07Z</time>
      </trkpt>
      <trkpt lat="44.27907" lon="0.55603">
        <ele>143</ele>
        <time>2007-03-25T13:01:07Z</time>
      </trkpt>
      <trkpt lat="44.27902" lon="0.55661">
        <ele>146</ele>
        <time>2007-03-25T13:01:07Z</time>
      </trkpt>
      <trkpt lat="44.27865" lon="0.55691">
        <ele>140</ele>
        <time>2007-03-25T13:01:07Z</time>
      </trkpt>
      <trkpt lat="44.27839" lon="0.55728">
        <ele>136</ele>
        <time>2007-03-25T13:01:07Z</time>
      </trkpt>
      <trkpt lat="44.27832" lon="0.5574">
        <ele>135</ele>
        <time>2007-03-25T13:01:07Z</time>
      </trkpt>
      <trkpt lat="44.2781" lon="0.55752">
        <ele>129</ele>
        <time>2007-03-25T13:01:07Z</time>
      </trkpt>
      <trkpt lat="44.278" lon="0.55785">
        <ele>126</ele>
        <time>2007-03-25T13:01:07Z</time>
      </trkpt>
      <trkpt lat="44.27779" lon="0.5585">
        <ele>118</ele>
        <time>2007-03-25T13:01:07Z</time>
      </trkpt>
      <trkpt lat="44.27754" lon="0.55904">
        <ele>107</ele>
        <time>2007-03-25T13:01:07Z</time>
      </trkpt>
      <trkpt lat="44.27738" lon="0.5594">
        <ele>100</ele>
        <time>2007-03-25T13:01:07Z</time>
      </trkpt>
      <trkpt lat="44.27721" lon="0.56">
        <ele>96</ele>
        <time>2007-03-25T13:01:07Z</time>
      </trkpt>
      <trkpt lat="44.27726" lon="0.56066">
        <ele>92</ele>
        <time>2007-03-25T13:01:07Z</time>
      </trkpt>
      <trkpt lat="44.27756" lon="0.56073">
        <ele>93</ele>
        <time>2007-03-25T13:01:07Z</time>
      </trkpt>
      <trkpt lat="44.27772" lon="0.56088">
        <ele>93</ele>
        <time>2007-03-25T13:01:07Z</time>
      </trkpt>
      <trkpt lat="44.27828" lon="0.56154">
        <ele>94</ele>
        <time>2007-03-25T13:01:07Z</time>
      </trkpt>
      <trkpt lat="44.27864" lon="0.56188">
        <ele>95</ele>
        <time>2007-03-25T13:01:07Z</time>
      </trkpt>
      <trkpt lat="44.27895" lon="0.56205">
        <ele>97</ele>
        <time>2007-03-25T13:01:07Z</time>
      </trkpt>
      <trkpt lat="44.27929" lon="0.56221">
        <ele>99</ele>
        <time>2007-03-25T13:01:07Z</time>
      </trkpt>
      <trkpt lat="44.27949" lon="0.56245">
        <ele>99</ele>
        <time>2007-03-25T13:01:07Z</time>
      </trkpt>
      <trkpt lat="44.27973" lon="0.56279">
        <ele>97</ele>
        <time>2007-03-25T13:01:07Z</time>
      </trkpt>
      <trkpt lat="44.28002" lon="0.56294">
        <ele>97</ele>
        <time>2007-03-25T13:01:07Z</time>
      </trkpt>
      <trkpt lat="44.28022" lon="0.56299">
        <ele>97</ele>
        <time>2007-03-25T13:01:07Z</time>
      </trkpt>
      <trkpt lat="44.28059" lon="0.56312">
        <ele>96</ele>
        <time>2007-03-25T13:01:07Z</time>
      </trkpt>
      <trkpt lat="44.28111" lon="0.5632">
        <ele>98</ele>
        <time>2007-03-25T13:01:07Z</time>
      </trkpt>
      <trkpt lat="44.28136" lon="0.56329">
        <ele>100</ele>
        <time>2007-03-25T13:01:07Z</time>
      </trkpt>
      <trkpt lat="44.28158" lon="0.56344">
        <ele>100</ele>
        <time>2007-03-25T13:01:07Z</time>
      </trkpt>
      <trkpt lat="44.28172" lon="0.56362">
        <ele>100</ele>
        <time>2007-03-25T13:01:07Z</time>
      </trkpt>
      <trkpt lat="44.2818" lon="0.56376">
        <ele>101</ele>
        <time>2007-03-25T13:01:07Z</time>
      </trkpt>
      <trkpt lat="44.28192" lon="0.56422">
        <ele>100</ele>
        <time>2007-03-25T13:01:07Z</time>
      </trkpt>
      <trkpt lat="44.28207" lon="0.56456">
        <ele>100</ele>
        <time>2007-03-25T13:01:07Z</time>
      </trkpt>
      <trkpt lat="44.28225" lon="0.56492">
        <ele>99</ele>
        <time>2007-03-25T13:01:07Z</time>
      </trkpt>
      <trkpt lat="44.2825" lon="0.56527">
        <ele>100</ele>
        <time>2007-03-25T13:01:07Z</time>
      </trkpt>
      <trkpt lat="44.28279" lon="0.56568">
        <ele>99</ele>
        <time>2007-03-25T13:01:07Z</time>
      </trkpt>
      <trkpt lat="44.28313" lon="0.56603">
        <ele>100</ele>
        <time>2007-03-25T13:01:07Z</time>
      </trkpt>
      <trkpt lat="44.28359" lon="0.56639">
        <ele>101</ele>
        <time>2007-03-25T13:01:07Z</time>
      </trkpt>
      <trkpt lat="44.28387" lon="0.56659">
        <ele>101</ele>
        <time>2007-03-25T13:01:07Z</time>
      </trkpt>
      <trkpt lat="44.28478" lon="0.56714">
        <ele>106</ele>
        <time>2007-03-25T13:01:07Z</time>
      </trkpt>
      <trkpt lat="44.28491" lon="0.56745">
        <ele>107</ele>
        <time>2007-03-25T13:01:07Z</time>
      </trkpt>
      <trkpt lat="44.28499" lon="0.56754">
        <ele>107</ele>
        <time>2007-03-25T13:01:07Z</time>
      </trkpt>
      <trkpt lat="44.28524" lon="0.56762">
        <ele>109</ele>
        <time>2007-03-25T13:01:07Z</time>
      </trkpt>
      <trkpt lat="44.28537" lon="0.5677">
        <ele>111</ele>
        <time>2007-03-25T13:01:07Z</time>
      </trkpt>
      <trkpt lat="44.28574" lon="0.56828">
        <ele>109</ele>
        <time>2007-03-25T13:01:07Z</time>
      </trkpt>
      <trkpt lat="44.28622" lon="0.56866">
        <ele>110</ele>
        <time>2007-03-25T13:01:07Z</time>
      </trkpt>
      <trkpt lat="44.28647" lon="0.5689">
        <ele>111</ele>
        <time>2007-03-25T13:01:07Z</time>
      </trkpt>
      <trkpt lat="44.28684" lon="0.5692">
        <ele>111</ele>
        <time>2007-03-25T13:01:07Z</time>
      </trkpt>
      <trkpt lat="44.28649" lon="0.56979">
        <ele>103</ele>
        <time>2007-03-25T13:01:07Z</time>
      </trkpt>
      <trkpt lat="44.28636" lon="0.57017">
        <ele>101</ele>
        <time>2007-03-25T13:01:07Z</time>
      </trkpt>
      <trkpt lat="44.28616" lon="0.57046">
        <ele>100</ele>
        <time>2007-03-25T13:01:07Z</time>
      </trkpt>
      <trkpt lat="44.28602" lon="0.57089">
        <ele>101</ele>
        <time>2007-03-25T13:01:07Z</time>
      </trkpt>
      <trkpt lat="44.28589" lon="0.57125">
        <ele>103</ele>
        <time>2007-03-25T13:01:07Z</time>
      </trkpt>
      <trkpt lat="44.28578" lon="0.57152">
        <ele>104</ele>
        <time>2007-03-25T13:01:07Z</time>
      </trkpt>
      <trkpt lat="44.28569" lon="0.57171">
        <ele>105</ele>
        <time>2007-03-25T13:01:07Z</time>
      </trkpt>
      <trkpt lat="44.28572" lon="0.57188">
        <ele>106</ele>
        <time>2007-03-25T13:01:07Z</time>
      </trkpt>
      <trkpt lat="44.28533" lon="0.57229">
        <ele>111</ele>
        <time>2007-03-25T13:01:07Z</time>
      </trkpt>
      <trkpt lat="44.28609" lon="0.57397">
        <ele>122</ele>
        <time>2007-03-25T13:01:07Z</time>
      </trkpt>
      <trkpt lat="44.28614" lon="0.5743">
        <ele>124</ele>
        <time>2007-03-25T13:01:07Z</time>
      </trkpt>
      <trkpt lat="44.28625" lon="0.57522">
        <ele>128</ele>
        <time>2007-03-25T13:01:07Z</time>
      </trkpt>
      <trkpt lat="44.2863" lon="0.57581">
        <ele>131</ele>
        <time>2007-03-25T13:01:07Z</time>
      </trkpt>
      <trkpt lat="44.28638" lon="0.57634">
        <ele>134</ele>
        <time>2007-03-25T13:01:07Z</time>
      </trkpt>
      <trkpt lat="44.2865" lon="0.5769">
        <ele>135</ele>
        <time>2007-03-25T13:01:07Z</time>
      </trkpt>
      <trkpt lat="44.28663" lon="0.57747">
        <ele>136</ele>
        <time>2007-03-25T13:01:07Z</time>
      </trkpt>
      <trkpt lat="44.2869" lon="0.57837">
        <ele>139</ele>
        <time>2007-03-25T13:01:07Z</time>
      </trkpt>
      <trkpt lat="44.28692" lon="0.5787">
        <ele>143</ele>
        <time>2007-03-25T13:01:07Z</time>
      </trkpt>
      <trkpt lat="44.28716" lon="0.57922">
        <ele>145</ele>
        <time>2007-03-25T13:01:07Z</time>
      </trkpt>
      <trkpt lat="44.2873" lon="0.57963">
        <ele>144</ele>
        <time>2007-03-25T13:01:07Z</time>
      </trkpt>
      <trkpt lat="44.28742" lon="0.57997">
        <ele>144</ele>
        <time>2007-03-25T13:01:07Z</time>
      </trkpt>
      <trkpt lat="44.28734" lon="0.5801">
        <ele>146</ele>
        <time>2007-03-25T13:01:07Z</time>
      </trkpt>
      <trkpt lat="44.28571" lon="0.5804">
        <ele>156</ele>
        <time>2007-03-25T13:01:07Z</time>
      </trkpt>
      <trkpt lat="44.28559" lon="0.58062">
        <ele>157</ele>
        <time>2007-03-25T13:01:07Z</time>
      </trkpt>
      <trkpt lat="44.28408" lon="0.58092">
        <ele>177</ele>
        <time>2007-03-25T13:01:07Z</time>
      </trkpt>
      <trkpt lat="44.28387" lon="0.5808">
        <ele>182</ele>
        <time>2007-03-25T13:01:07Z</time>
      </trkpt>
      <trkpt lat="44.28356" lon="0.58095">
        <ele>183</ele>
        <time>2007-03-25T13:01:07Z</time>
      </trkpt>
      <trkpt lat="44.28293" lon="0.58134">
        <ele>185</ele>
        <time>2007-03-25T13:01:07Z</time>
      </trkpt>
      <trkpt lat="44.28265" lon="0.58146">
        <ele>185</ele>
        <time>2007-03-25T13:01:07Z</time>
      </trkpt>
      <trkpt lat="44.28171" lon="0.58184">
        <ele>191</ele>
        <time>2007-03-25T13:01:07Z</time>
      </trkpt>
      <trkpt lat="44.28167" lon="0.58077">
        <ele>189</ele>
        <time>2007-03-25T13:01:07Z</time>
      </trkpt>
      <trkpt lat="44.28152" lon="0.58061">
        <ele>190</ele>
        <time>2007-03-25T13:01:07Z</time>
      </trkpt>
      <trkpt lat="44.28106" lon="0.58021">
        <ele>188</ele>
        <time>2007-03-25T13:01:07Z</time>
      </trkpt>
      <trkpt lat="44.28082" lon="0.58003">
        <ele>187</ele>
        <time>2007-03-25T13:01:07Z</time>
      </trkpt>
      <trkpt lat="44.28063" lon="0.58007">
        <ele>186</ele>
        <time>2007-03-25T13:01:07Z</time>
      </trkpt>
      <trkpt lat="44.27982" lon="0.58044">
        <ele>183</ele>
        <time>2007-03-25T13:01:07Z</time>
      </trkpt>
      <trkpt lat="44.27947" lon="0.58059">
        <ele>181</ele>
        <time>2007-03-25T13:01:07Z</time>
      </trkpt>
      <trkpt lat="44.2792" lon="0.58082">
        <ele>178</ele>
        <time>2007-03-25T13:01:07Z</time>
      </trkpt>
      <trkpt lat="44.2789" lon="0.58114">
        <ele>173</ele>
        <time>2007-03-25T13:01:07Z</time>
      </trkpt>
      <trkpt lat="44.2786" lon="0.5814">
        <ele>167</ele>
        <time>2007-03-25T13:01:07Z</time>
      </trkpt>
      <trkpt lat="44.27825" lon="0.58166">
        <ele>161</ele>
        <time>2007-03-25T13:01:07Z</time>
      </trkpt>
      <trkpt lat="44.2784" lon="0.58249">
        <ele>156</ele>
        <time>2007-03-25T13:01:07Z</time>
      </trkpt>
      <trkpt lat="44.2784" lon="0.58297">
        <ele>154</ele>
        <time>2007-03-25T13:01:07Z</time>
      </trkpt>
      <trkpt lat="44.27834" lon="0.58341">
        <ele>153</ele>
        <time>2007-03-25T13:01:07Z</time>
      </trkpt>
      <trkpt lat="44.27824" lon="0.58406">
        <ele>153</ele>
        <time>2007-03-25T13:01:07Z</time>
      </trkpt>
      <trkpt lat="44.27814" lon="0.58469">
        <ele>152</ele>
        <time>2007-03-25T13:01:07Z</time>
      </trkpt>
      <trkpt lat="44.27807" lon="0.58535">
        <ele>150</ele>
        <time>2007-03-25T13:01:07Z</time>
      </trkpt>
      <trkpt lat="44.27803" lon="0.58567">
        <ele>149</ele>
        <time>2007-03-25T13:01:07Z</time>
      </trkpt>
      <trkpt lat="44.27803" lon="0.58608">
        <ele>150</ele>
        <time>2007-03-25T13:01:07Z</time>
      </trkpt>
      <trkpt lat="44.27799" lon="0.58683">
        <ele>150</ele>
        <time>2007-03-25T13:01:07Z</time>
      </trkpt>
      <trkpt lat="44.27792" lon="0.58746">
        <ele>150</ele>
        <time>2007-03-25T13:01:07Z</time>
      </trkpt>
      <trkpt lat="44.27785" lon="0.58804">
        <ele>148</ele>
        <time>2007-03-25T13:01:07Z</time>
      </trkpt>
      <trkpt lat="44.27784" lon="0.58826">
        <ele>147</ele>
        <time>2007-03-25T13:01:07Z</time>
      </trkpt>
      <trkpt lat="44.27786" lon="0.58847">
        <ele>147</ele>
        <time>2007-03-25T13:01:07Z</time>
      </trkpt>
      <trkpt lat="44.27799" lon="0.58888">
        <ele>151</ele>
        <time>2007-03-25T13:01:07Z</time>
      </trkpt>
      <trkpt lat="44.27802" lon="0.58915">
        <ele>151</ele>
        <time>2007-03-25T13:01:07Z</time>
      </trkpt>
      <trkpt lat="44.27801" lon="0.5894">
        <ele>150</ele>
        <time>2007-03-25T13:01:07Z</time>
      </trkpt>
      <trkpt lat="44.2779" lon="0.58979">
        <ele>148</ele>
        <time>2007-03-25T13:01:07Z</time>
      </trkpt>
      <trkpt lat="44.27781" lon="0.5902">
        <ele>148</ele>
        <time>2007-03-25T13:01:07Z</time>
      </trkpt>
      <trkpt lat="44.27778" lon="0.59053">
        <ele>148</ele>
        <time>2007-03-25T13:01:07Z</time>
      </trkpt>
      <trkpt lat="44.27776" lon="0.59085">
        <ele>149</ele>
        <time>2007-03-25T13:01:07Z</time>
      </trkpt>
      <trkpt lat="44.2778" lon="0.59122">
        <ele>151</ele>
        <time>2007-03-25T13:01:07Z</time>
      </trkpt>
      <trkpt lat="44.27774" lon="0.5914">
        <ele>150</ele>
        <time>2007-03-25T13:01:07Z</time>
      </trkpt>
      <trkpt lat="44.27751" lon="0.59181">
        <ele>147</ele>
        <time>2007-03-25T13:01:07Z</time>
      </trkpt>
      <trkpt lat="44.27783" lon="0.59191">
        <ele>152</ele>
        <time>2007-03-25T13:01:07Z</time>
      </trkpt>
      <trkpt lat="44.27813" lon="0.59203">
        <ele>158</ele>
        <time>2007-03-25T13:01:07Z</time>
      </trkpt>
      <trkpt lat="44.27853" lon="0.5922">
        <ele>165</ele>
        <time>2007-03-25T13:01:07Z</time>
      </trkpt>
      <trkpt lat="44.27877" lon="0.59227">
        <ele>170</ele>
        <time>2007-03-25T13:01:07Z</time>
      </trkpt>
      <trkpt lat="44.27899" lon="0.59223">
        <ele>174</ele>
        <time>2007-03-25T13:01:07Z</time>
      </trkpt>
      <trkpt lat="44.27934" lon="0.59213">
        <ele>178</ele>
        <time>2007-03-25T13:01:07Z</time>
      </trkpt>
      <trkpt lat="44.27966" lon="0.59201">
        <ele>180</ele>
        <time>2007-03-25T13:01:07Z</time>
      </trkpt>
      <trkpt lat="44.28003" lon="0.59175">
        <ele>182</ele>
        <time>2007-03-25T13:01:07Z</time>
      </trkpt>
      <trkpt lat="44.28069" lon="0.5919">
        <ele>186</ele>
        <time>2007-03-25T13:01:07Z</time>
      </trkpt>
      <trkpt lat="44.28108" lon="0.59192">
        <ele>189</ele>
        <time>2007-03-25T13:01:07Z</time>
      </trkpt>
      <trkpt lat="44.28131" lon="0.59257">
        <ele>191</ele>
        <time>2007-03-25T13:01:07Z</time>
      </trkpt>
      <trkpt lat="44.28142" lon="0.59314">
        <ele>193</ele>
        <time>2007-03-25T13:01:07Z</time>
      </trkpt>
      <trkpt lat="44.28143" lon="0.59371">
        <ele>193</ele>
        <time>2007-03-25T13:01:07Z</time>
      </trkpt>
      <trkpt lat="44.28143" lon="0.59415">
        <ele>192</ele>
        <time>2007-03-25T13:01:07Z</time>
      </trkpt>
      <trkpt lat="44.28139" lon="0.59493">
        <ele>190</ele>
        <time>2007-03-25T13:01:07Z</time>
      </trkpt>
      <trkpt lat="44.28172" lon="0.59457">
        <ele>187</ele>
        <time>2007-03-25T13:01:07Z</time>
      </trkpt>
      <trkpt lat="44.28208" lon="0.59425">
        <ele>184</ele>
        <time>2007-03-25T13:01:07Z</time>
      </trkpt>
      <trkpt lat="44.28227" lon="0.59421">
        <ele>183</ele>
        <time>2007-03-25T13:01:07Z</time>
      </trkpt>
      <trkpt lat="44.28278" lon="0.59421">
        <ele>179</ele>
        <time>2007-03-25T13:01:07Z</time>
      </trkpt>
      <trkpt lat="44.28355" lon="0.59427">
        <ele>168</ele>
        <time>2007-03-25T13:01:07Z</time>
      </trkpt>
      <trkpt lat="44.28485" lon="0.59454">
        <ele>156</ele>
        <time>2007-03-25T13:01:07Z</time>
      </trkpt>
      <trkpt lat="44.28535" lon="0.59467">
        <ele>156</ele>
        <time>2007-03-25T13:01:07Z</time>
      </trkpt>
      <trkpt lat="44.28557" lon="0.59471">
        <ele>157</ele>
        <time>2007-03-25T13:01:07Z</time>
      </trkpt>
      <trkpt lat="44.28679" lon="0.59508">
        <ele>175</ele>
        <time>2007-03-25T13:01:07Z</time>
      </trkpt>
      <trkpt lat="44.28747" lon="0.59527">
        <ele>185</ele>
        <time>2007-03-25T13:01:07Z</time>
      </trkpt>
      <trkpt lat="44.28797" lon="0.59557">
        <ele>190</ele>
        <time>2007-03-25T13:01:07Z</time>
      </trkpt>
      <trkpt lat="44.2884" lon="0.59571">
        <ele>193</ele>
        <time>2007-03-25T13:01:07Z</time>
      </trkpt>
      <trkpt lat="44.28867" lon="0.59577">
        <ele>194</ele>
        <time>2007-03-25T13:01:07Z</time>
      </trkpt>
      <trkpt lat="44.28879" lon="0.59578">
        <ele>194</ele>
        <time>2007-03-25T13:01:07Z</time>
      </trkpt>
      <trkpt lat="44.28912" lon="0.59594">
        <ele>195</ele>
        <time>2007-03-25T13:01:07Z</time>
      </trkpt>
      <trkpt lat="44.28943" lon="0.59598">
        <ele>193</ele>
        <time>2007-03-25T13:01:07Z</time>
      </trkpt>
      <trkpt lat="44.29002" lon="0.59593">
        <ele>188</ele>
        <time>2007-03-25T13:01:07Z</time>
      </trkpt>
      <trkpt lat="44.29053" lon="0.59585">
        <ele>186</ele>
        <time>2007-03-25T13:01:07Z</time>
      </trkpt>
      <trkpt lat="44.2909" lon="0.59592">
        <ele>187</ele>
        <time>2007-03-25T13:01:07Z</time>
      </trkpt>
      <trkpt lat="44.29085" lon="0.59623">
        <ele>189</ele>
        <time>2007-03-25T13:01:07Z</time>
      </trkpt>
      <trkpt lat="44.29083" lon="0.59656">
        <ele>191</ele>
        <time>2007-03-25T13:01:07Z</time>
      </trkpt>
      <trkpt lat="44.29084" lon="0.59695">
        <ele>192</ele>
        <time>2007-03-25T13:01:07Z</time>
      </trkpt>
      <trkpt lat="44.29182" lon="0.59785">
        <ele>190</ele>
        <time>2007-03-25T13:01:07Z</time>
      </trkpt>
      <trkpt lat="44.29197" lon="0.59808">
        <ele>189</ele>
        <time>2007-03-25T13:01:07Z</time>
      </trkpt>
      <trkpt lat="44.2923" lon="0.59822">
        <ele>186</ele>
        <time>2007-03-25T13:01:07Z</time>
      </trkpt>
      <trkpt lat="44.29245" lon="0.59869">
        <ele>180</ele>
        <time>2007-03-25T13:01:07Z</time>
      </trkpt>
      <trkpt lat="44.2928" lon="0.5989">
        <ele>173</ele>
        <time>2007-03-25T13:01:07Z</time>
      </trkpt>
      <trkpt lat="44.29317" lon="0.59828">
        <ele>173</ele>
        <time>2007-03-25T13:01:07Z</time>
      </trkpt>
      <trkpt lat="44.29372" lon="0.59873">
        <ele>166</ele>
        <time>2007-03-25T13:01:07Z</time>
      </trkpt>
      <trkpt lat="44.29405" lon="0.59897">
        <ele>161</ele>
        <time>2007-03-25T13:01:07Z</time>
      </trkpt>
      <trkpt lat="44.29432" lon="0.59913">
        <ele>157</ele>
        <time>2007-03-25T13:01:07Z</time>
      </trkpt>
      <trkpt lat="44.29457" lon="0.5992">
        <ele>154</ele>
        <time>2007-03-25T13:01:07Z</time>
      </trkpt>
      <trkpt lat="44.29474" lon="0.59914">
        <ele>154</ele>
        <time>2007-03-25T13:01:07Z</time>
      </trkpt>
      <trkpt lat="44.29514" lon="0.59893">
        <ele>153</ele>
        <time>2007-03-25T13:01:07Z</time>
      </trkpt>
      <trkpt lat="44.29556" lon="0.59903">
        <ele>158</ele>
        <time>2007-03-25T13:01:07Z</time>
      </trkpt>
      <trkpt lat="44.29579" lon="0.59898">
        <ele>161</ele>
        <time>2007-03-25T13:01:07Z</time>
      </trkpt>
      <trkpt lat="44.29655" lon="0.5988">
        <ele>175</ele>
        <time>2007-03-25T13:01:07Z</time>
      </trkpt>
      <trkpt lat="44.29687" lon="0.59871">
        <ele>181</ele>
        <time>2007-03-25T13:01:07Z</time>
      </trkpt>
      <trkpt lat="44.29698" lon="0.59863">
        <ele>183</ele>
        <time>2007-03-25T13:01:07Z</time>
      </trkpt>
      <trkpt lat="44.29707" lon="0.59858">
        <ele>184</ele>
        <time>2007-03-25T13:01:07Z</time>
      </trkpt>
      <trkpt lat="44.29716" lon="0.59815">
        <ele>185</ele>
        <time>2007-03-25T13:01:07Z</time>
      </trkpt>
      <trkpt lat="44.29802" lon="0.59836">
        <ele>193</ele>
        <time>2007-03-25T13:01:07Z</time>
      </trkpt>
      <trkpt lat="44.29829" lon="0.59838">
        <ele>194</ele>
        <time>2007-03-25T13:01:07Z</time>
      </trkpt>
      <trkpt lat="44.29841" lon="0.59835">
        <ele>194</ele>
        <time>2007-03-25T13:01:07Z</time>
      </trkpt>
      <trkpt lat="44.29861" lon="0.59822">
        <ele>194</ele>
        <time>2007-03-25T13:01:07Z</time>
      </trkpt>
      <trkpt lat="44.29909" lon="0.59787">
        <ele>191</ele>
        <time>2007-03-25T13:01:07Z</time>
      </trkpt>
      <trkpt lat="44.29948" lon="0.59749">
        <ele>187</ele>
        <time>2007-03-25T13:01:07Z</time>
      </trkpt>
      <trkpt lat="44.29992" lon="0.59721">
        <ele>180</ele>
        <time>2007-03-25T13:01:07Z</time>
      </trkpt>
      <trkpt lat="44.30013" lon="0.59726">
        <ele>176</ele>
        <time>2007-03-25T13:01:07Z</time>
      </trkpt>
      <trkpt lat="44.30034" lon="0.59735">
        <ele>172</ele>
        <time>2007-03-25T13:01:07Z</time>
      </trkpt>
      <trkpt lat="44.301" lon="0.5968">
        <ele>156</ele>
        <time>2007-03-25T13:01:07Z</time>
      </trkpt>
      <trkpt lat="44.30125" lon="0.59699">
        <ele>153</ele>
        <time>2007-03-25T13:01:07Z</time>
      </trkpt>
      <trkpt lat="44.3014" lon="0.59736">
        <ele>150</ele>
        <time>2007-03-25T13:01:07Z</time>
      </trkpt>
      <trkpt lat="44.30171" lon="0.59717">
        <ele>145</ele>
        <time>2007-03-25T13:01:07Z</time>
      </trkpt>
      <trkpt lat="44.30183" lon="0.59699">
        <ele>143</ele>
        <time>2007-03-25T13:01:07Z</time>
      </trkpt>
      <trkpt lat="44.30192" lon="0.59675">
        <ele>141</ele>
        <time>2007-03-25T13:01:07Z</time>
      </trkpt>
      <trkpt lat="44.30194" lon="0.59653">
        <ele>139</ele>
        <time>2007-03-25T13:01:07Z</time>
      </trkpt>
      <trkpt lat="44.30187" lon="0.59572">
        <ele>134</ele>
        <time>2007-03-25T13:01:07Z</time>
      </trkpt>
      <trkpt lat="44.302" lon="0.59561">
        <ele>132</ele>
        <time>2007-03-25T13:01:07Z</time>
      </trkpt>
      <trkpt lat="44.3022" lon="0.59548">
        <ele>129</ele>
        <time>2007-03-25T13:01:07Z</time>
      </trkpt>
      <trkpt lat="44.30259" lon="0.59528">
        <ele>125</ele>
        <time>2007-03-25T13:01:07Z</time>
      </trkpt>
      <trkpt lat="44.30313" lon="0.59499">
        <ele>129</ele>
        <time>2007-03-25T13:01:07Z</time>
      </trkpt>
      <trkpt lat="44.30342" lon="0.59498">
        <ele>135</ele>
        <time>2007-03-25T13:01:07Z</time>
      </trkpt>
      <trkpt lat="44.30354" lon="0.59472">
        <ele>140</ele>
        <time>2007-03-25T13:01:07Z</time>
      </trkpt>
      <trkpt lat="44.30362" lon="0.59418">
        <ele>145</ele>
        <time>2007-03-25T13:01:07Z</time>
      </trkpt>
      <trkpt lat="44.30365" lon="0.59315">
        <ele>146</ele>
        <time>2007-03-25T13:01:07Z</time>
      </trkpt>
      <trkpt lat="44.30369" lon="0.59253">
        <ele>147</ele>
        <time>2007-03-25T13:01:07Z</time>
      </trkpt>
      <trkpt lat="44.30384" lon="0.59159">
        <ele>148</ele>
        <time>2007-03-25T13:01:07Z</time>
      </trkpt>
      <trkpt lat="44.30396" lon="0.59076">
        <ele>142</ele>
        <time>2007-03-25T13:01:07Z</time>
      </trkpt>
      <trkpt lat="44.30399" lon="0.59052">
        <ele>139</ele>
        <time>2007-03-25T13:01:07Z</time>
      </trkpt>
      <trkpt lat="44.304" lon="0.59024">
        <ele>135</ele>
        <time>2007-03-25T13:01:07Z</time>
      </trkpt>
      <trkpt lat="44.30447" lon="0.59041">
        <ele>133</ele>
        <time>2007-03-25T13:01:07Z</time>
      </trkpt>
      <trkpt lat="44.30474" lon="0.59058">
        <ele>128</ele>
        <time>2007-03-25T13:01:07Z</time>
      </trkpt>
      <trkpt lat="44.30524" lon="0.59083">
        <ele>125</ele>
        <time>2007-03-25T13:01:07Z</time>
      </trkpt>
      <trkpt lat="44.30585" lon="0.59109">
        <ele>118</ele>
        <time>2007-03-25T13:01:07Z</time>
      </trkpt>
      <trkpt lat="44.30625" lon="0.59147">
        <ele>116</ele>
        <time>2007-03-25T13:01:07Z</time>
      </trkpt>
      <trkpt lat="44.30674" lon="0.59202">
        <ele>113</ele>
        <time>2007-03-25T13:01:07Z</time>
      </trkpt>
      <trkpt lat="44.30711" lon="0.59223">
        <ele>110</ele>
        <time>2007-03-25T13:01:07Z</time>
      </trkpt>
      <trkpt lat="44.30749" lon="0.59237">
        <ele>111</ele>
        <time>2007-03-25T13:01:07Z</time>
      </trkpt>
      <trkpt lat="44.30774" lon="0.59189">
        <ele>111</ele>
        <time>2007-03-25T13:01:07Z</time>
      </trkpt>
      <trkpt lat="44.30786" lon="0.59153">
        <ele>111</ele>
        <time>2007-03-25T13:01:07Z</time>
      </trkpt>
      <trkpt lat="44.30786" lon="0.59139">
        <ele>111</ele>
        <time>2007-03-25T13:01:07Z</time>
      </trkpt>
      <trkpt lat="44.30776" lon="0.59114">
        <ele>111</ele>
        <time>2007-03-25T13:01:07Z</time>
      </trkpt>
      <trkpt lat="44.3078" lon="0.59092">
        <ele>111</ele>
        <time>2007-03-25T13:01:07Z</time>
      </trkpt>
      <trkpt lat="44.3079" lon="0.59065">
        <ele>112</ele>
        <time>2007-03-25T13:01:07Z</time>
      </trkpt>
      <trkpt lat="44.30814" lon="0.5905">
        <ele>112</ele>
        <time>2007-03-25T13:01:07Z</time>
      </trkpt>
      <trkpt lat="44.30847" lon="0.59034">
        <ele>114</ele>
        <time>2007-03-25T13:01:07Z</time>
      </trkpt>
      <trkpt lat="44.30913" lon="0.59002">
        <ele>117</ele>
        <time>2007-03-25T13:01:07Z</time>
      </trkpt>
      <trkpt lat="44.30777" lon="0.58701">
        <ele>112</ele>
        <time>2007-03-25T13:01:07Z</time>
      </trkpt>
      <trkpt lat="44.30765" lon="0.58687">
        <ele>112</ele>
        <time>2007-03-25T13:01:07Z</time>
      </trkpt>
      <trkpt lat="44.30775" lon="0.58658">
        <ele>113</ele>
        <time>2007-03-25T13:01:07Z</time>
      </trkpt>
      <trkpt lat="44.30782" lon="0.58628">
        <ele>115</ele>
        <time>2007-03-25T13:01:07Z</time>
      </trkpt>
      <trkpt lat="44.30807" lon="0.5859">
        <ele>117</ele>
        <time>2007-03-25T13:01:07Z</time>
      </trkpt>
      <trkpt lat="44.30849" lon="0.58531">
        <ele>121</ele>
        <time>2007-03-25T13:01:07Z</time>
      </trkpt>
      <trkpt lat="44.30859" lon="0.58512">
        <ele>122</ele>
        <time>2007-03-25T13:01:07Z</time>
      </trkpt>
      <trkpt lat="44.30867" lon="0.58465">
        <ele>125</ele>
        <time>2007-03-25T13:01:07Z</time>
      </trkpt>
      <trkpt lat="44.30867" lon="0.58424">
        <ele>128</ele>
        <time>2007-03-25T13:01:07Z</time>
      </trkpt>
      <trkpt lat="44.30857" lon="0.58372">
        <ele>130</ele>
        <time>2007-03-25T13:01:07Z</time>
      </trkpt>
      <trkpt lat="44.30843" lon="0.58331">
        <ele>131</ele>
        <time>2007-03-25T13:01:07Z</time>
      </trkpt>
      <trkpt lat="44.30822" lon="0.58356">
        <ele>130</ele>
        <time>2007-03-25T13:01:07Z</time>
      </trkpt>
      <trkpt lat="44.30768" lon="0.58258">
        <ele>130</ele>
        <time>2007-03-25T13:01:07Z</time>
      </trkpt>
      <trkpt lat="44.30785" lon="0.58231">
        <ele>133</ele>
        <time>2007-03-25T13:01:07Z</time>
      </trkpt>
      <trkpt lat="44.30752" lon="0.58161">
        <ele>135</ele>
        <time>2007-03-25T13:01:07Z</time>
      </trkpt>
      <trkpt lat="44.30709" lon="0.58081">
        <ele>133</ele>
        <time>2007-03-25T13:01:07Z</time>
      </trkpt>
      <trkpt lat="44.30681" lon="0.58012">
        <ele>132</ele>
        <time>2007-03-25T13:01:07Z</time>
      </trkpt>
      <trkpt lat="44.30638" lon="0.57897">
        <ele>127</ele>
        <time>2007-03-25T13:01:07Z</time>
      </trkpt>
      <trkpt lat="44.30614" lon="0.57835">
        <ele>125</ele>
        <time>2007-03-25T13:01:07Z</time>
      </trkpt>
      <trkpt lat="44.30591" lon="0.57739">
        <ele>135</ele>
        <time>2007-03-25T13:01:07Z</time>
      </trkpt>
      <trkpt lat="44.30591" lon="0.5772">
        <ele>138</ele>
        <time>2007-03-25T13:01:07Z</time>
      </trkpt>
      <trkpt lat="44.30595" lon="0.57711">
        <ele>141</ele>
        <time>2007-03-25T13:01:07Z</time>
      </trkpt>
      <trkpt lat="44.30616" lon="0.57707">
        <ele>142</ele>
        <time>2007-03-25T13:01:07Z</time>
      </trkpt>
      <trkpt lat="44.30631" lon="0.57709">
        <ele>141</ele>
        <time>2007-03-25T13:01:07Z</time>
      </trkpt>
      <trkpt lat="44.30652" lon="0.57701">
        <ele>142</ele>
        <time>2007-03-25T13:01:07Z</time>
      </trkpt>
      <trkpt lat="44.30663" lon="0.57688">
        <ele>144</ele>
        <time>2007-03-25T13:01:07Z</time>
      </trkpt>
      <trkpt lat="44.30636" lon="0.57656">
        <ele>151</ele>
        <time>2007-03-25T13:01:07Z</time>
      </trkpt>
      <trkpt lat="44.30667" lon="0.57614">
        <ele>156</ele>
        <time>2007-03-25T13:01:07Z</time>
      </trkpt>
      <trkpt lat="44.30676" lon="0.57591">
        <ele>160</ele>
        <time>2007-03-25T13:01:07Z</time>
      </trkpt>
      <trkpt lat="44.30694" lon="0.57543">
        <ele>167</ele>
        <time>2007-03-25T13:01:07Z</time>
      </trkpt>
      <trkpt lat="44.30708" lon="0.57519">
        <ele>172</ele>
        <time>2007-03-25T13:01:07Z</time>
      </trkpt>
      <trkpt lat="44.30722" lon="0.57536">
        <ele>170</ele>
        <time>2007-03-25T13:01:07Z</time>
      </trkpt>
      <trkpt lat="44.30768" lon="0.57466">
        <ele>184</ele>
        <time>2007-03-25T13:01:07Z</time>
      </trkpt>
      <trkpt lat="44.30867" lon="0.57473">
        <ele>186</ele>
        <time>2007-03-25T13:01:07Z</time>
      </trkpt>
      <trkpt lat="44.30844" lon="0.57419">
        <ele>189</ele>
        <time>2007-03-25T13:01:07Z</time>
      </trkpt>
      <trkpt lat="44.30842" lon="0.57397">
        <ele>190</ele>
        <time>2007-03-25T13:01:07Z</time>
      </trkpt>
      <trkpt lat="44.30837" lon="0.57374">
        <ele>190</ele>
        <time>2007-03-25T13:01:07Z</time>
      </trkpt>
      <trkpt lat="44.30826" lon="0.5736">
        <ele>189</ele>
        <time>2007-03-25T13:01:07Z</time>
      </trkpt>
      <trkpt lat="44.30819" lon="0.57343">
        <ele>189</ele>
        <time>2007-03-25T13:01:07Z</time>
      </trkpt>
      <trkpt lat="44.30831" lon="0.57285">
        <ele>189</ele>
        <time>2007-03-25T13:01:07Z</time>
      </trkpt>
      <trkpt lat="44.30845" lon="0.57214">
        <ele>190</ele>
        <time>2007-03-25T13:01:07Z</time>
      </trkpt>
      <trkpt lat="44.30863" lon="0.57178">
        <ele>191</ele>
        <time>2007-03-25T13:01:07Z</time>
      </trkpt>
      <trkpt lat="44.30872" lon="0.57141">
        <ele>191</ele>
        <time>2007-03-25T13:01:07Z</time>
      </trkpt>
      <trkpt lat="44.30878" lon="0.57079">
        <ele>191</ele>
        <time>2007-03-25T13:01:07Z</time>
      </trkpt>
      <trkpt lat="44.30884" lon="0.56978">
        <ele>191</ele>
        <time>2007-03-25T13:01:07Z</time>
      </trkpt>
      <trkpt lat="44.30887" lon="0.56923">
        <ele>191</ele>
        <time>2007-03-25T13:01:07Z</time>
      </trkpt>
      <trkpt lat="44.30889" lon="0.56893">
        <ele>190</ele>
        <time>2007-03-25T13:01:07Z</time>
      </trkpt>
      <trkpt lat="44.30896" lon="0.56865">
        <ele>190</ele>
        <time>2007-03-25T13:01:07Z</time>
      </trkpt>
      <trkpt lat="44.3085" lon="0.56807">
        <ele>186</ele>
        <time>2007-03-25T13:01:07Z</time>
      </trkpt>
      <trkpt lat="44.30829" lon="0.5679">
        <ele>183</ele>
        <time>2007-03-25T13:01:07Z</time>
      </trkpt>
      <trkpt lat="44.30795" lon="0.56762">
        <ele>180</ele>
        <time>2007-03-25T13:01:07Z</time>
      </trkpt>
      <trkpt lat="44.30744" lon="0.56721">
        <ele>177</ele>
        <time>2007-03-25T13:01:07Z</time>
      </trkpt>
      <trkpt lat="44.30741" lon="0.56698">
        <ele>180</ele>
        <time>2007-03-25T13:01:07Z</time>
      </trkpt>
      <trkpt lat="44.30785" lon="0.56609">
        <ele>189</ele>
        <time>2007-03-25T13:01:07Z</time>
      </trkpt>
      <trkpt lat="44.3082" lon="0.56551">
        <ele>188</ele>
        <time>2007-03-25T13:01:07Z</time>
      </trkpt>
      <trkpt lat="44.30839" lon="0.56483">
        <ele>187</ele>
        <time>2007-03-25T13:01:07Z</time>
      </trkpt>
      <trkpt lat="44.30864" lon="0.56446">
        <ele>187</ele>
        <time>2007-03-25T13:01:07Z</time>
      </trkpt>
      <trkpt lat="44.30862" lon="0.56407">
        <ele>186</ele>
        <time>2007-03-25T13:01:07Z</time>
      </trkpt>
      <trkpt lat="44.30856" lon="0.56343">
        <ele>185</ele>
        <time>2007-03-25T13:01:07Z</time>
      </trkpt>
      <trkpt lat="44.30846" lon="0.5629">
        <ele>184</ele>
        <time>2007-03-25T13:01:07Z</time>
      </trkpt>
      <trkpt lat="44.30895" lon="0.56225">
        <ele>178</ele>
        <time>2007-03-25T13:01:07Z</time>
      </trkpt>
      <trkpt lat="44.30988" lon="0.56256">
        <ele>177</ele>
        <time>2007-03-25T13:01:07Z</time>
      </trkpt>
      <trkpt lat="44.31017" lon="0.56265">
        <ele>178</ele>
        <time>2007-03-25T13:01:07Z</time>
      </trkpt>
      <trkpt lat="44.31048" lon="0.56253">
        <ele>177</ele>
        <time>2007-03-25T13:01:07Z</time>
      </trkpt>
      <trkpt lat="44.31077" lon="0.56241">
        <ele>173</ele>
        <time>2007-03-25T13:01:07Z</time>
      </trkpt>
      <trkpt lat="44.31117" lon="0.56218">
        <ele>167</ele>
        <time>2007-03-25T13:01:07Z</time>
      </trkpt>
      <trkpt lat="44.31139" lon="0.56211">
        <ele>159</ele>
        <time>2007-03-25T13:01:07Z</time>
      </trkpt>
      <trkpt lat="44.31177" lon="0.56217">
        <ele>152</ele>
        <time>2007-03-25T13:01:07Z</time>
      </trkpt>
      <trkpt lat="44.31204" lon="0.56199">
        <ele>147</ele>
        <time>2007-03-25T13:01:07Z</time>
      </trkpt>
      <trkpt lat="44.31225" lon="0.56189">
        <ele>144</ele>
        <time>2007-03-25T13:01:07Z</time>
      </trkpt>
      <trkpt lat="44.31275" lon="0.56144">
        <ele>134</ele>
        <time>2007-03-25T13:01:07Z</time>
      </trkpt>
      <trkpt lat="44.31278" lon="0.56087">
        <ele>132</ele>
        <time>2007-03-25T13:01:07Z</time>
      </trkpt>
      <trkpt lat="44.31278" lon="0.56059">
        <ele>131</ele>
        <time>2007-03-25T13:01:07Z</time>
      </trkpt>
      <trkpt lat="44.31293" lon="0.56043">
        <ele>128</ele>
        <time>2007-03-25T13:01:07Z</time>
      </trkpt>
      <trkpt lat="44.3131" lon="0.5603">
        <ele>125</ele>
        <time>2007-03-25T13:01:07Z</time>
      </trkpt>
      <trkpt lat="44.31324" lon="0.56025">
        <ele>123</ele>
        <time>2007-03-25T13:01:07Z</time>
      </trkpt>
      <trkpt lat="44.31356" lon="0.56028">
        <ele>119</ele>
        <time>2007-03-25T13:01:07Z</time>
      </trkpt>
      <trkpt lat="44.31397" lon="0.56037">
        <ele>120</ele>
        <time>2007-03-25T13:01:07Z</time>
      </trkpt>
      <trkpt lat="44.31453" lon="0.55859">
        <ele>127</ele>
        <time>2007-03-25T13:01:07Z</time>
      </trkpt>
      <trkpt lat="44.31494" lon="0.55802">
        <ele>135</ele>
        <time>2007-03-25T13:01:07Z</time>
      </trkpt>
      <trkpt lat="44.31515" lon="0.55743">
        <ele>136</ele>
        <time>2007-03-25T13:01:07Z</time>
      </trkpt>
      <trkpt lat="44.3153" lon="0.55694">
        <ele>138</ele>
        <time>2007-03-25T13:01:07Z</time>
      </trkpt>
      <trkpt lat="44.31559" lon="0.55615">
        <ele>146</ele>
        <time>2007-03-25T13:01:07Z</time>
      </trkpt>
      <trkpt lat="44.31564" lon="0.55588">
        <ele>146</ele>
        <time>2007-03-25T13:01:07Z</time>
      </trkpt>
      <trkpt lat="44.31607" lon="0.55482">
        <ele>152</ele>
        <time>2007-03-25T13:01:07Z</time>
      </trkpt>
      <trkpt lat="44.31607" lon="0.5556">
        <ele>158</ele>
        <time>2007-03-25T13:01:07Z</time>
      </trkpt>
      <trkpt lat="44.31598" lon="0.55629">
        <ele>158</ele>
        <time>2007-03-25T13:01:07Z</time>
      </trkpt>
      <trkpt lat="44.31597" lon="0.55675">
        <ele>159</ele>
        <time>2007-03-25T13:01:07Z</time>
      </trkpt>
      <trkpt lat="44.31633" lon="0.55782">
        <ele>177</ele>
        <time>2007-03-25T13:01:07Z</time>
      </trkpt>
      <trkpt lat="44.31639" lon="0.55824">
        <ele>179</ele>
        <time>2007-03-25T13:01:07Z</time>
      </trkpt>
      <trkpt lat="44.31639" lon="0.55886">
        <ele>179</ele>
        <time>2007-03-25T13:01:07Z</time>
      </trkpt>
      <trkpt lat="44.31658" lon="0.55908">
        <ele>184</ele>
        <time>2007-03-25T13:01:07Z</time>
      </trkpt>
      <trkpt lat="44.31652" lon="0.55953">
        <ele>183</ele>
        <time>2007-03-25T13:01:07Z</time>
      </trkpt>
      <trkpt lat="44.31671" lon="0.55994">
        <ele>188</ele>
        <time>2007-03-25T13:01:07Z</time>
      </trkpt>
      <trkpt lat="44.31667" lon="0.56025">
        <ele>188</ele>
        <time>2007-03-25T13:01:07Z</time>
      </trkpt>
      <trkpt lat="44.31657" lon="0.56069">
        <ele>189</ele>
        <time>2007-03-25T13:01:07Z</time>
      </trkpt>
      <trkpt lat="44.31642" lon="0.56099">
        <ele>188</ele>
        <time>2007-03-25T13:01:07Z</time>
      </trkpt>
      <trkpt lat="44.3164" lon="0.56123">
        <ele>187</ele>
        <time>2007-03-25T13:01:07Z</time>
      </trkpt>
      <trkpt lat="44.31641" lon="0.56164">
        <ele>187</ele>
        <time>2007-03-25T13:01:07Z</time>
      </trkpt>
      <trkpt lat="44.31652" lon="0.5619">
        <ele>186</ele>
        <time>2007-03-25T13:01:07Z</time>
      </trkpt>
      <trkpt lat="44.31652" lon="0.56292">
        <ele>184</ele>
        <time>2007-03-25T13:01:07Z</time>
      </trkpt>
      <trkpt lat="44.31664" lon="0.56351">
        <ele>184</ele>
        <time>2007-03-25T13:01:07Z</time>
      </trkpt>
      <trkpt lat="44.31669" lon="0.56415">
        <ele>184</ele>
        <time>2007-03-25T13:01:07Z</time>
      </trkpt>
      <trkpt lat="44.31677" lon="0.56482">
        <ele>185</ele>
        <time>2007-03-25T13:01:07Z</time>
      </trkpt>
      <trkpt lat="44.31691" lon="0.5656">
        <ele>187</ele>
        <time>2007-03-25T13:01:07Z</time>
      </trkpt>
      <trkpt lat="44.31708" lon="0.56631">
        <ele>189</ele>
        <time>2007-03-25T13:01:07Z</time>
      </trkpt>
      <trkpt lat="44.31712" lon="0.56666">
        <ele>190</ele>
        <time>2007-03-25T13:01:07Z</time>
      </trkpt>
      <trkpt lat="44.31708" lon="0.56721">
        <ele>190</ele>
        <time>2007-03-25T13:01:07Z</time>
      </trkpt>
      <trkpt lat="44.31703" lon="0.56822">
        <ele>192</ele>
        <time>2007-03-25T13:01:07Z</time>
      </trkpt>
      <trkpt lat="44.31706" lon="0.5686">
        <ele>192</ele>
        <time>2007-03-25T13:01:07Z</time>
      </trkpt>
      <trkpt lat="44.31706" lon="0.5686">
        <ele>192</ele>
        <time>2007-03-25T13:01:07Z</time>
      </trkpt>
      <trkpt lat="44.31708" lon="0.56891">
        <ele>193</ele>
        <time>2007-03-25T13:01:07Z</time>
      </trkpt>
      <trkpt lat="44.31698" lon="0.56923">
        <ele>193</ele>
        <time>2007-03-25T13:01:07Z</time>
      </trkpt>
      <trkpt lat="44.31681" lon="0.56955">
        <ele>193</ele>
        <time>2007-03-25T13:01:07Z</time>
      </trkpt>
      <trkpt lat="44.31725" lon="0.5693">
        <ele>195</ele>
        <time>2007-03-25T13:01:07Z</time>
      </trkpt>
      <trkpt lat="44.31753" lon="0.56904">
        <ele>196</ele>
        <time>2007-03-25T13:01:07Z</time>
      </trkpt>
      <trkpt lat="44.31788" lon="0.56865">
        <ele>198</ele>
        <time>2007-03-25T13:01:07Z</time>
      </trkpt>
      <trkpt lat="44.31816" lon="0.56853">
        <ele>199</ele>
        <time>2007-03-25T13:01:07Z</time>
      </trkpt>
      <trkpt lat="44.31852" lon="0.56837">
        <ele>200</ele>
        <time>2007-03-25T13:01:07Z</time>
      </trkpt>
      <trkpt lat="44.31898" lon="0.56821">
        <ele>201</ele>
        <time>2007-03-25T13:01:07Z</time>
      </trkpt>
      <trkpt lat="44.31941" lon="0.56818">
        <ele>202</ele>
        <time>2007-03-25T13:01:07Z</time>
      </trkpt>
      <trkpt lat="44.32011" lon="0.56821">
        <ele>202</ele>
        <time>2007-03-25T13:01:07Z</time>
      </trkpt>
      <trkpt lat="44.32069" lon="0.56827">
        <ele>198</ele>
        <time>2007-03-25T13:01:07Z</time>
      </trkpt>
      <trkpt lat="44.32095" lon="0.56831">
        <ele>195</ele>
        <time>2007-03-25T13:01:07Z</time>
      </trkpt>
      <trkpt lat="44.32128" lon="0.56823">
        <ele>193</ele>
        <time>2007-03-25T13:01:07Z</time>
      </trkpt>
      <trkpt lat="44.32183" lon="0.5682">
        <ele>190</ele>
        <time>2007-03-25T13:01:07Z</time>
      </trkpt>
      <trkpt lat="44.32225" lon="0.56823">
        <ele>187</ele>
        <time>2007-03-25T13:01:07Z</time>
      </trkpt>
      <trkpt lat="44.32268" lon="0.56831">
        <ele>185</ele>
        <time>2007-03-25T13:01:07Z</time>
      </trkpt>
      <trkpt lat="44.3228" lon="0.56839">
        <ele>185</ele>
        <time>2007-03-25T13:01:07Z</time>
      </trkpt>
      <trkpt lat="44.32306" lon="0.56858">
        <ele>188</ele>
        <time>2007-03-25T13:01:07Z</time>
      </trkpt>
      <trkpt lat="44.32334" lon="0.56875">
        <ele>190</ele>
        <time>2007-03-25T13:01:07Z</time>
      </trkpt>
      <trkpt lat="44.32351" lon="0.56865">
        <ele>191</ele>
        <time>2007-03-25T13:01:07Z</time>
      </trkpt>
      <trkpt lat="44.32389" lon="0.5684">
        <ele>192</ele>
        <time>2007-03-25T13:01:07Z</time>
      </trkpt>
      <trkpt lat="44.32423" lon="0.56816">
        <ele>194</ele>
        <time>2007-03-25T13:01:07Z</time>
      </trkpt>
      <trkpt lat="44.3246" lon="0.56789">
        <ele>194</ele>
        <time>2007-03-25T13:01:07Z</time>
      </trkpt>
      <trkpt lat="44.32469" lon="0.56769">
        <ele>194</ele>
        <time>2007-03-25T13:01:07Z</time>
      </trkpt>
      <trkpt lat="44.32486" lon="0.56753">
        <ele>193</ele>
        <time>2007-03-25T13:01:07Z</time>
      </trkpt>
      <trkpt lat="44.32522" lon="0.56728">
        <ele>192</ele>
        <time>2007-03-25T13:01:07Z</time>
      </trkpt>
      <trkpt lat="44.32584" lon="0.56709">
        <ele>190</ele>
        <time>2007-03-25T13:01:07Z</time>
      </trkpt>
      <trkpt lat="44.32639" lon="0.56713">
        <ele>188</ele>
        <time>2007-03-25T13:01:07Z</time>
      </trkpt>
      <trkpt lat="44.32713" lon="0.56733">
        <ele>185</ele>
        <time>2007-03-25T13:01:07Z</time>
      </trkpt>
      <trkpt lat="44.32741" lon="0.56734">
        <ele>184</ele>
        <time>2007-03-25T13:01:07Z</time>
      </trkpt>
      <trkpt lat="44.32761" lon="0.56733">
        <ele>183</ele>
        <time>2007-03-25T13:01:07Z</time>
      </trkpt>
      <trkpt lat="44.32785" lon="0.56724">
        <ele>182</ele>
        <time>2007-03-25T13:01:07Z</time>
      </trkpt>
      <trkpt lat="44.32841" lon="0.56707">
        <ele>182</ele>
        <time>2007-03-25T13:01:07Z</time>
      </trkpt>
      <trkpt lat="44.3287" lon="0.56668">
        <ele>182</ele>
        <time>2007-03-25T13:01:07Z</time>
      </trkpt>
      <trkpt lat="44.3292" lon="0.56589">
        <ele>182</ele>
        <time>2007-03-25T13:01:07Z</time>
      </trkpt>
      <trkpt lat="44.32936" lon="0.56555">
        <ele>182</ele>
        <time>2007-03-25T13:01:07Z</time>
      </trkpt>
      <trkpt lat="44.32947" lon="0.56512">
        <ele>182</ele>
        <time>2007-03-25T13:01:07Z</time>
      </trkpt>
      <trkpt lat="44.32956" lon="0.56482">
        <ele>181</ele>
        <time>2007-03-25T13:01:07Z</time>
      </trkpt>
      <trkpt lat="44.32965" lon="0.56467">
        <ele>181</ele>
        <time>2007-03-25T13:01:07Z</time>
      </trkpt>
      <trkpt lat="44.32985" lon="0.5645">
        <ele>182</ele>
        <time>2007-03-25T13:01:07Z</time>
      </trkpt>
      <trkpt lat="44.33011" lon="0.56434">
        <ele>183</ele>
        <time>2007-03-25T13:01:07Z</time>
      </trkpt>
      <trkpt lat="44.33024" lon="0.56419">
        <ele>183</ele>
        <time>2007-03-25T13:01:07Z</time>
      </trkpt>
      <trkpt lat="44.33044" lon="0.56392">
        <ele>184</ele>
        <time>2007-03-25T13:01:07Z</time>
      </trkpt>
      <trkpt lat="44.33069" lon="0.56371">
        <ele>184</ele>
        <time>2007-03-25T13:01:07Z</time>
      </trkpt>
      <trkpt lat="44.33077" lon="0.56355">
        <ele>184</ele>
        <time>2007-03-25T13:01:07Z</time>
      </trkpt>
      <trkpt lat="44.33076" lon="0.56192">
        <ele>176</ele>
        <time>2007-03-25T13:01:07Z</time>
      </trkpt>
      <trkpt lat="44.33053" lon="0.56108">
        <ele>173</ele>
        <time>2007-03-25T13:01:07Z</time>
      </trkpt>
      <trkpt lat="44.33055" lon="0.56074">
        <ele>172</ele>
        <time>2007-03-25T13:01:07Z</time>
      </trkpt>
      <trkpt lat="44.33059" lon="0.56045">
        <ele>170</ele>
        <time>2007-03-25T13:01:07Z</time>
      </trkpt>
      <trkpt lat="44.33079" lon="0.55973">
        <ele>165</ele>
        <time>2007-03-25T13:01:07Z</time>
      </trkpt>
      <trkpt lat="44.33106" lon="0.55878">
        <ele>160</ele>
        <time>2007-03-25T13:01:07Z</time>
      </trkpt>
      <trkpt lat="44.33122" lon="0.55805">
        <ele>157</ele>
        <time>2007-03-25T13:01:07Z</time>
      </trkpt>
      <trkpt lat="44.33126" lon="0.55753">
        <ele>156</ele>
        <time>2007-03-25T13:01:07Z</time>
      </trkpt>
      <trkpt lat="44.33128" lon="0.55727">
        <ele>155</ele>
        <time>2007-03-25T13:01:07Z</time>
      </trkpt>
      <trkpt lat="44.33121" lon="0.55697">
        <ele>154</ele>
        <time>2007-03-25T13:01:07Z</time>
      </trkpt>
      <trkpt lat="44.33146" lon="0.55645">
        <ele>148</ele>
        <time>2007-03-25T13:01:07Z</time>
      </trkpt>
      <trkpt lat="44.33163" lon="0.55647">
        <ele>148</ele>
        <time>2007-03-25T13:01:07Z</time>
      </trkpt>
      <trkpt lat="44.33183" lon="0.55642">
        <ele>145</ele>
        <time>2007-03-25T13:01:07Z</time>
      </trkpt>
      <trkpt lat="44.3323" lon="0.5563">
        <ele>137</ele>
        <time>2007-03-25T13:01:07Z</time>
      </trkpt>
      <trkpt lat="44.33298" lon="0.55588">
        <ele>125</ele>
        <time>2007-03-25T13:01:07Z</time>
      </trkpt>
      <trkpt lat="44.33357" lon="0.5555">
        <ele>119</ele>
        <time>2007-03-25T13:01:07Z</time>
      </trkpt>
      <trkpt lat="44.33392" lon="0.55513">
        <ele>117</ele>
        <time>2007-03-25T13:01:07Z</time>
      </trkpt>
      <trkpt lat="44.33421" lon="0.55475">
        <ele>114</ele>
        <time>2007-03-25T13:01:07Z</time>
      </trkpt>
      <trkpt lat="44.33497" lon="0.55369">
        <ele>108</ele>
        <time>2007-03-25T13:01:07Z</time>
      </trkpt>
      <trkpt lat="44.33531" lon="0.55327">
        <ele>107</ele>
        <time>2007-03-25T13:01:07Z</time>
      </trkpt>
      <trkpt lat="44.33564" lon="0.55284">
        <ele>107</ele>
        <time>2007-03-25T13:01:07Z</time>
      </trkpt>
      <trkpt lat="44.33641" lon="0.5519">
        <ele>103</ele>
        <time>2007-03-25T13:01:07Z</time>
      </trkpt>
      <trkpt lat="44.33683" lon="0.55134">
        <ele>96</ele>
        <time>2007-03-25T13:01:07Z</time>
      </trkpt>
      <trkpt lat="44.33697" lon="0.55107">
        <ele>94</ele>
        <time>2007-03-25T13:01:07Z</time>
      </trkpt>
      <trkpt lat="44.33756" lon="0.54988">
        <ele>82</ele>
        <time>2007-03-25T13:01:07Z</time>
      </trkpt>
      <trkpt lat="44.33777" lon="0.54968">
        <ele>79</ele>
        <time>2007-03-25T13:01:07Z</time>
      </trkpt>
      <trkpt lat="44.33803" lon="0.54947">
        <ele>76</ele>
        <time>2007-03-25T13:01:07Z</time>
      </trkpt>
      <trkpt lat="44.33832" lon="0.54926">
        <ele>74</ele>
        <time>2007-03-25T13:01:07Z</time>
      </trkpt>
      <trkpt lat="44.33875" lon="0.54903">
        <ele>73</ele>
        <time>2007-03-25T13:01:07Z</time>
      </trkpt>
      <trkpt lat="44.33914" lon="0.5488">
        <ele>76</ele>
        <time>2007-03-25T13:01:07Z</time>
      </trkpt>
      <trkpt lat="44.3394" lon="0.54861">
        <ele>81</ele>
        <time>2007-03-25T13:01:07Z</time>
      </trkpt>
      <trkpt lat="44.33957" lon="0.54842">
        <ele>84</ele>
        <time>2007-03-25T13:01:07Z</time>
      </trkpt>
      <trkpt lat="44.33961" lon="0.54822">
        <ele>85</ele>
        <time>2007-03-25T13:01:07Z</time>
      </trkpt>
      <trkpt lat="44.3396" lon="0.54789">
        <ele>86</ele>
        <time>2007-03-25T13:01:07Z</time>
      </trkpt>
      <trkpt lat="44.33966" lon="0.54607">
        <ele>93</ele>
        <time>2007-03-25T13:01:07Z</time>
      </trkpt>
      <trkpt lat="44.33976" lon="0.5457">
        <ele>93</ele>
        <time>2007-03-25T13:01:07Z</time>
      </trkpt>
      <trkpt lat="44.33994" lon="0.5451">
        <ele>92</ele>
        <time>2007-03-25T13:01:07Z</time>
      </trkpt>
      <trkpt lat="44.34013" lon="0.54444">
        <ele>90</ele>
        <time>2007-03-25T13:01:07Z</time>
      </trkpt>
      <trkpt lat="44.34036" lon="0.54321">
        <ele>91</ele>
        <time>2007-03-25T13:01:07Z</time>
      </trkpt>
      <trkpt lat="44.34045" lon="0.54271">
        <ele>92</ele>
        <time>2007-03-25T13:01:07Z</time>
      </trkpt>
      <trkpt lat="44.34048" lon="0.54236">
        <ele>92</ele>
        <time>2007-03-25T13:01:07Z</time>
      </trkpt>
      <trkpt lat="44.34049" lon="0.54206">
        <ele>94</ele>
        <time>2007-03-25T13:01:07Z</time>
      </trkpt>
      <trkpt lat="44.34041" lon="0.54175">
        <ele>95</ele>
        <time>2007-03-25T13:01:07Z</time>
      </trkpt>
      <trkpt lat="44.34033" lon="0.54147">
        <ele>98</ele>
        <time>2007-03-25T13:01:07Z</time>
      </trkpt>
      <trkpt lat="44.34031" lon="0.54118">
        <ele>101</ele>
        <time>2007-03-25T13:01:07Z</time>
      </trkpt>
      <trkpt lat="44.34038" lon="0.54062">
        <ele>105</ele>
        <time>2007-03-25T13:01:07Z</time>
      </trkpt>
      <trkpt lat="44.3406" lon="0.54021">
        <ele>107</ele>
        <time>2007-03-25T13:01:07Z</time>
      </trkpt>
      <trkpt lat="44.34089" lon="0.53978">
        <ele>109</ele>
        <time>2007-03-25T13:01:07Z</time>
      </trkpt>
      <trkpt lat="44.34102" lon="0.5394">
        <ele>109</ele>
        <time>2007-03-25T13:01:07Z</time>
      </trkpt>
      <trkpt lat="44.34122" lon="0.53889">
        <ele>113</ele>
        <time>2007-03-25T13:01:07Z</time>
      </trkpt>
      <trkpt lat="44.34136" lon="0.53867">
        <ele>117</ele>
        <time>2007-03-25T13:01:07Z</time>
      </trkpt>
      <trkpt lat="44.34153" lon="0.53835">
        <ele>123</ele>
        <time>2007-03-25T13:01:07Z</time>
      </trkpt>
      <trkpt lat="44.3418" lon="0.53804">
        <ele>132</ele>
        <time>2007-03-25T13:01:07Z</time>
      </trkpt>
      <trkpt lat="44.34198" lon="0.53757">
        <ele>137</ele>
        <time>2007-03-25T13:01:07Z</time>
      </trkpt>
      <trkpt lat="44.34214" lon="0.53715">
        <ele>141</ele>
        <time>2007-03-25T13:01:07Z</time>
      </trkpt>
      <trkpt lat="44.34254" lon="0.53653">
        <ele>148</ele>
        <time>2007-03-25T13:01:07Z</time>
      </trkpt>
      <trkpt lat="44.34281" lon="0.53614">
        <ele>149</ele>
        <time>2007-03-25T13:01:07Z</time>
      </trkpt>
      <trkpt lat="44.34328" lon="0.53572">
        <ele>150</ele>
        <time>2007-03-25T13:01:07Z</time>
      </trkpt>
      <trkpt lat="44.34346" lon="0.5355">
        <ele>149</ele>
        <time>2007-03-25T13:01:07Z</time>
      </trkpt>
      <trkpt lat="44.34365" lon="0.53497">
        <ele>148</ele>
        <time>2007-03-25T13:01:07Z</time>
      </trkpt>
      <trkpt lat="44.34405" lon="0.53393">
        <ele>148</ele>
        <time>2007-03-25T13:01:07Z</time>
      </trkpt>
      <trkpt lat="44.34426" lon="0.53365">
        <ele>146</ele>
        <time>2007-03-25T13:01:07Z</time>
      </trkpt>
      <trkpt lat="44.34437" lon="0.53301">
        <ele>141</ele>
        <time>2007-03-25T13:01:07Z</time>
      </trkpt>
      <trkpt lat="44.34439" lon="0.53248">
        <ele>140</ele>
        <time>2007-03-25T13:01:07Z</time>
      </trkpt>
      <trkpt lat="44.34426" lon="0.53181">
        <ele>143</ele>
        <time>2007-03-25T13:01:07Z</time>
      </trkpt>
      <trkpt lat="44.34387" lon="0.53176">
        <ele>143</ele>
        <time>2007-03-25T13:01:07Z</time>
      </trkpt>
      <trkpt lat="44.34302" lon="0.53177">
        <ele>137</ele>
        <time>2007-03-25T13:01:07Z</time>
      </trkpt>
      <trkpt lat="44.34258" lon="0.53188">
        <ele>130</ele>
        <time>2007-03-25T13:01:07Z</time>
      </trkpt>
      <trkpt lat="44.34231" lon="0.53195">
        <ele>127</ele>
        <time>2007-03-25T13:01:07Z</time>
      </trkpt>
      <trkpt lat="44.3418" lon="0.53184">
        <ele>128</ele>
        <time>2007-03-25T13:01:07Z</time>
      </trkpt>
      <trkpt lat="44.34148" lon="0.53183">
        <ele>128</ele>
        <time>2007-03-25T13:01:07Z</time>
      </trkpt>
      <trkpt lat="44.34115" lon="0.5317">
        <ele>131</ele>
        <time>2007-03-25T13:01:07Z</time>
      </trkpt>
      <trkpt lat="44.34088" lon="0.53149">
        <ele>133</ele>
        <time>2007-03-25T13:01:07Z</time>
      </trkpt>
      <trkpt lat="44.3406" lon="0.53123">
        <ele>136</ele>
        <time>2007-03-25T13:01:07Z</time>
      </trkpt>
      <trkpt lat="44.34059" lon="0.53106">
        <ele>139</ele>
        <time>2007-03-25T13:01:07Z</time>
      </trkpt>
      <trkpt lat="44.34058" lon="0.5308">
        <ele>142</ele>
        <time>2007-03-25T13:01:07Z</time>
      </trkpt>
      <trkpt lat="44.34058" lon="0.53048">
        <ele>145</ele>
        <time>2007-03-25T13:01:07Z</time>
      </trkpt>
      <trkpt lat="44.34057" lon="0.53023">
        <ele>145</ele>
        <time>2007-03-25T13:01:07Z</time>
      </trkpt>
      <trkpt lat="44.34056" lon="0.53004">
        <ele>145</ele>
        <time>2007-03-25T13:01:07Z</time>
      </trkpt>
      <trkpt lat="44.3403" lon="0.52991">
        <ele>139</ele>
        <time>2007-03-25T13:01:07Z</time>
      </trkpt>
      <trkpt lat="44.34001" lon="0.52998">
        <ele>132</ele>
        <time>2007-03-25T13:01:07Z</time>
      </trkpt>
      <trkpt lat="44.33979" lon="0.53007">
        <ele>126</ele>
        <time>2007-03-25T13:01:07Z</time>
      </trkpt>
      <trkpt lat="44.33962" lon="0.53017">
        <ele>122</ele>
        <time>2007-03-25T13:01:07Z</time>
      </trkpt>
      <trkpt lat="44.33951" lon="0.53023">
        <ele>119</ele>
        <time>2007-03-25T13:01:07Z</time>
      </trkpt>
      <trkpt lat="44.33935" lon="0.53013">
        <ele>116</ele>
        <time>2007-03-25T13:01:07Z</time>
      </trkpt>
      <trkpt lat="44.33908" lon="0.52984">
        <ele>113</ele>
        <time>2007-03-25T13:01:07Z</time>
      </trkpt>
      <trkpt lat="44.33892" lon="0.52966">
        <ele>110</ele>
        <time>2007-03-25T13:01:07Z</time>
      </trkpt>
      <trkpt lat="44.33831" lon="0.52921">
        <ele>104</ele>
        <time>2007-03-25T13:01:07Z</time>
      </trkpt>
      <trkpt lat="44.33761" lon="0.52939">
        <ele>100</ele>
        <time>2007-03-25T13:01:07Z</time>
      </trkpt>
      <trkpt lat="44.33706" lon="0.52903">
        <ele>99</ele>
        <time>2007-03-25T13:01:07Z</time>
      </trkpt>
      <trkpt lat="44.33663" lon="0.52885">
        <ele>101</ele>
        <time>2007-03-25T13:01:07Z</time>
      </trkpt>
      <trkpt lat="44.33597" lon="0.52861">
        <ele>101</ele>
        <time>2007-03-25T13:01:07Z</time>
      </trkpt>
      <trkpt lat="44.33539" lon="0.52849">
        <ele>97</ele>
        <time>2007-03-25T13:01:07Z</time>
      </trkpt>
      <trkpt lat="44.33482" lon="0.52838">
        <ele>95</ele>
        <time>2007-03-25T13:01:07Z</time>
      </trkpt>
      <trkpt lat="44.33431" lon="0.52816">
        <ele>91</ele>
        <time>2007-03-25T13:01:07Z</time>
      </trkpt>
      <trkpt lat="44.33386" lon="0.52808">
        <ele>87</ele>
        <time>2007-03-25T13:01:07Z</time>
      </trkpt>
      <trkpt lat="44.3324" lon="0.5278">
        <ele>70</ele>
        <time>2007-03-25T13:01:07Z</time>
      </trkpt>
      <trkpt lat="44.33234" lon="0.5283">
        <ele>70</ele>
        <time>2007-03-25T13:01:07Z</time>
      </trkpt>
      <trkpt lat="44.33229" lon="0.52901">
        <ele>70</ele>
        <time>2007-03-25T13:01:07Z</time>
      </trkpt>
      <trkpt lat="44.33223" lon="0.52965">
        <ele>67</ele>
        <time>2007-03-25T13:01:07Z</time>
      </trkpt>
      <trkpt lat="44.33227" lon="0.52984">
        <ele>67</ele>
        <time>2007-03-25T13:01:07Z</time>
      </trkpt>
      <trkpt lat="44.33236" lon="0.53018">
        <ele>66</ele>
        <time>2007-03-25T13:01:07Z</time>
      </trkpt>
      <trkpt lat="44.3321" lon="0.53042">
        <ele>63</ele>
        <time>2007-03-25T13:01:07Z</time>
      </trkpt>
      <trkpt lat="44.3319" lon="0.53078">
        <ele>62</ele>
        <time>2007-03-25T13:01:07Z</time>
      </trkpt>
      <trkpt lat="44.33174" lon="0.53116">
        <ele>62</ele>
        <time>2007-03-25T13:01:07Z</time>
      </trkpt>
      <trkpt lat="44.33155" lon="0.53174">
        <ele>62</ele>
        <time>2007-03-25T13:01:07Z</time>
      </trkpt>
      <trkpt lat="44.33137" lon="0.53219">
        <ele>63</ele>
        <time>2007-03-25T13:01:07Z</time>
      </trkpt>
      <trkpt lat="44.33116" lon="0.53262">
        <ele>63</ele>
        <time>2007-03-25T13:01:07Z</time>
      </trkpt>
      <trkpt lat="44.33097" lon="0.53292">
        <ele>63</ele>
        <time>2007-03-25T13:01:07Z</time>
      </trkpt>
      <trkpt lat="44.33081" lon="0.5331">
        <ele>64</ele>
        <time>2007-03-25T13:01:07Z</time>
      </trkpt>
      <trkpt lat="44.32988" lon="0.53308">
        <ele>67</ele>
        <time>2007-03-25T13:01:07Z</time>
      </trkpt>
      <trkpt lat="44.32982" lon="0.53142">
        <ele>64</ele>
        <time>2007-03-25T13:01:07Z</time>
      </trkpt>
      <trkpt lat="44.32977" lon="0.53031">
        <ele>64</ele>
        <time>2007-03-25T13:01:07Z</time>
      </trkpt>
      <trkpt lat="44.3296" lon="0.52877">
        <ele>64</ele>
        <time>2007-03-25T13:01:07Z</time>
      </trkpt>
      <trkpt lat="44.32955" lon="0.52806">
        <ele>64</ele>
        <time>2007-03-25T13:01:07Z</time>
      </trkpt>
      <trkpt lat="44.32954" lon="0.52744">
        <ele>64</ele>
        <time>2007-03-25T13:01:07Z</time>
      </trkpt>
      <trkpt lat="44.32971" lon="0.52687">
        <ele>63</ele>
        <time>2007-03-25T13:01:07Z</time>
      </trkpt>
      <trkpt lat="44.32989" lon="0.52617">
        <ele>63</ele>
        <time>2007-03-25T13:01:07Z</time>
      </trkpt>
      <trkpt lat="44.33001" lon="0.52551">
        <ele>63</ele>
        <time>2007-03-25T13:01:07Z</time>
      </trkpt>
      <trkpt lat="44.33004" lon="0.52518">
        <ele>63</ele>
        <time>2007-03-25T13:01:07Z</time>
      </trkpt>
      <trkpt lat="44.33006" lon="0.52471">
        <ele>64</ele>
        <time>2007-03-25T13:01:07Z</time>
      </trkpt>
      <trkpt lat="44.33005" lon="0.52424">
        <ele>64</ele>
        <time>2007-03-25T13:01:07Z</time>
      </trkpt>
      <trkpt lat="44.33046" lon="0.52338">
        <ele>64</ele>
        <time>2007-03-25T13:01:07Z</time>
      </trkpt>
      <trkpt lat="44.32945" lon="0.52305">
        <ele>70</ele>
        <time>2007-03-25T13:01:07Z</time>
      </trkpt>
      <trkpt lat="44.3279" lon="0.52249">
        <ele>76</ele>
        <time>2007-03-25T13:01:07Z</time>
      </trkpt>
      <trkpt lat="44.32564" lon="0.52156">
        <ele>88</ele>
        <time>2007-03-25T13:01:07Z</time>
      </trkpt>
      <trkpt lat="44.32323" lon="0.52043">
        <ele>104</ele>
        <time>2007-03-25T13:01:07Z</time>
      </trkpt>
      <trkpt lat="44.32316" lon="0.52135">
        <ele>104</ele>
        <time>2007-03-25T13:01:07Z</time>
      </trkpt>
      <trkpt lat="44.32299" lon="0.52191">
        <ele>103</ele>
        <time>2007-03-25T13:01:07Z</time>
      </trkpt>
      <trkpt lat="44.32281" lon="0.52244">
        <ele>102</ele>
        <time>2007-03-25T13:01:07Z</time>
      </trkpt>
      <trkpt lat="44.32266" lon="0.52308">
        <ele>99</ele>
        <time>2007-03-25T13:01:07Z</time>
      </trkpt>
      <trkpt lat="44.32252" lon="0.52373">
        <ele>97</ele>
        <time>2007-03-25T13:01:07Z</time>
      </trkpt>
      <trkpt lat="44.32238" lon="0.52431">
        <ele>95</ele>
        <time>2007-03-25T13:01:07Z</time>
      </trkpt>
      <trkpt lat="44.32229" lon="0.52488">
        <ele>97</ele>
        <time>2007-03-25T13:01:07Z</time>
      </trkpt>
      <trkpt lat="44.32225" lon="0.52527">
        <ele>99</ele>
        <time>2007-03-25T13:01:07Z</time>
      </trkpt>
      <trkpt lat="44.32226" lon="0.52562">
        <ele>101</ele>
        <time>2007-03-25T13:01:07Z</time>
      </trkpt>
      <trkpt lat="44.32233" lon="0.52599">
        <ele>103</ele>
        <time>2007-03-25T13:01:07Z</time>
      </trkpt>
      <trkpt lat="44.32243" lon="0.52622">
        <ele>103</ele>
        <time>2007-03-25T13:01:07Z</time>
      </trkpt>
      <trkpt lat="44.32204" lon="0.52605">
        <ele>103</ele>
        <time>2007-03-25T13:01:07Z</time>
      </trkpt>
      <trkpt lat="44.3216" lon="0.52577">
        <ele>104</ele>
        <time>2007-03-25T13:01:07Z</time>
      </trkpt>
      <trkpt lat="44.32107" lon="0.52528">
        <ele>106</ele>
        <time>2007-03-25T13:01:07Z</time>
      </trkpt>
      <trkpt lat="44.32073" lon="0.52485">
        <ele>109</ele>
        <time>2007-03-25T13:01:07Z</time>
      </trkpt>
      <trkpt lat="44.32048" lon="0.52452">
        <ele>112</ele>
        <time>2007-03-25T13:01:07Z</time>
      </trkpt>
      <trkpt lat="44.32005" lon="0.52379">
        <ele>120</ele>
        <time>2007-03-25T13:01:07Z</time>
      </trkpt>
      <trkpt lat="44.31958" lon="0.52312">
        <ele>129</ele>
        <time>2007-03-25T13:01:07Z</time>
      </trkpt>
      <trkpt lat="44.31956" lon="0.52249">
        <ele>134</ele>
        <time>2007-03-25T13:01:07Z</time>
      </trkpt>
      <trkpt lat="44.3192" lon="0.5208">
        <ele>152</ele>
        <time>2007-03-25T13:01:07Z</time>
      </trkpt>
      <trkpt lat="44.31903" lon="0.52077">
        <ele>153</ele>
        <time>2007-03-25T13:01:07Z</time>
      </trkpt>
      <trkpt lat="44.31886" lon="0.52061">
        <ele>155</ele>
        <time>2007-03-25T13:01:07Z</time>
      </trkpt>
      <trkpt lat="44.31872" lon="0.52038">
        <ele>157</ele>
        <time>2007-03-25T13:01:07Z</time>
      </trkpt>
      <trkpt lat="44.31865" lon="0.52022">
        <ele>159</ele>
        <time>2007-03-25T13:01:07Z</time>
      </trkpt>
      <trkpt lat="44.31846" lon="0.51952">
        <ele>166</ele>
        <time>2007-03-25T13:01:07Z</time>
      </trkpt>
      <trkpt lat="44.31831" lon="0.51915">
        <ele>168</ele>
        <time>2007-03-25T13:01:07Z</time>
      </trkpt>
      <trkpt lat="44.31823" lon="0.51897">
        <ele>169</ele>
        <time>2007-03-25T13:01:07Z</time>
      </trkpt>
      <trkpt lat="44.31801" lon="0.51885">
        <ele>168</ele>
        <time>2007-03-25T13:01:07Z</time>
      </trkpt>
      <trkpt lat="44.3171" lon="0.51844">
        <ele>170</ele>
        <time>2007-03-25T13:01:07Z</time>
      </trkpt>
      <trkpt lat="44.31688" lon="0.51859">
        <ele>168</ele>
        <time>2007-03-25T13:01:07Z</time>
      </trkpt>
      <trkpt lat="44.31641" lon="0.51879">
        <ele>168</ele>
        <time>2007-03-25T13:01:07Z</time>
      </trkpt>
      <trkpt lat="44.31596" lon="0.51901">
        <ele>169</ele>
        <time>2007-03-25T13:01:07Z</time>
      </trkpt>
      <trkpt lat="44.31569" lon="0.51928">
        <ele>167</ele>
        <time>2007-03-25T13:01:07Z</time>
      </trkpt>
      <trkpt lat="44.31548" lon="0.5196">
        <ele>167</ele>
        <time>2007-03-25T13:01:07Z</time>
      </trkpt>
      <trkpt lat="44.3154" lon="0.51984">
        <ele>167</ele>
        <time>2007-03-25T13:01:07Z</time>
      </trkpt>
      <trkpt lat="44.31531" lon="0.52011">
        <ele>166</ele>
        <time>2007-03-25T13:01:07Z</time>
      </trkpt>
      <trkpt lat="44.31398" lon="0.52072">
        <ele>177</ele>
        <time>2007-03-25T13:01:07Z</time>
      </trkpt>
      <trkpt lat="44.31334" lon="0.52016">
        <ele>173</ele>
        <time>2007-03-25T13:01:07Z</time>
      </trkpt>
      <trkpt lat="44.31299" lon="0.5186">
        <ele>182</ele>
        <time>2007-03-25T13:01:07Z</time>
      </trkpt>
      <trkpt lat="44.31333" lon="0.51795">
        <ele>184</ele>
        <time>2007-03-25T13:01:07Z</time>
      </trkpt>
      <trkpt lat="44.31339" lon="0.51774">
        <ele>184</ele>
        <time>2007-03-25T13:01:07Z</time>
      </trkpt>
      <trkpt lat="44.31355" lon="0.5171">
        <ele>183</ele>
        <time>2007-03-25T13:01:07Z</time>
      </trkpt>
      <trkpt lat="44.3132" lon="0.51695">
        <ele>183</ele>
        <time>2007-03-25T13:01:07Z</time>
      </trkpt>
      <trkpt lat="44.31293" lon="0.51676">
        <ele>183</ele>
        <time>2007-03-25T13:01:07Z</time>
      </trkpt>
      <trkpt lat="44.31273" lon="0.51654">
        <ele>183</ele>
        <time>2007-03-25T13:01:07Z</time>
      </trkpt>
      <trkpt lat="44.31248" lon="0.51619">
        <ele>183</ele>
        <time>2007-03-25T13:01:07Z</time>
      </trkpt>
      <trkpt lat="44.31241" lon="0.51604">
        <ele>183</ele>
        <time>2007-03-25T13:01:07Z</time>
      </trkpt>
      <trkpt lat="44.3123" lon="0.51571">
        <ele>183</ele>
        <time>2007-03-25T13:01:07Z</time>
      </trkpt>
      <trkpt lat="44.31226" lon="0.51545">
        <ele>182</ele>
        <time>2007-03-25T13:01:07Z</time>
      </trkpt>
      <trkpt lat="44.31197" lon="0.51504">
        <ele>184</ele>
        <time>2007-03-25T13:01:07Z</time>
      </trkpt>
      <trkpt lat="44.31145" lon="0.51435">
        <ele>188</ele>
        <time>2007-03-25T13:01:07Z</time>
      </trkpt>
      <trkpt lat="44.31094" lon="0.51367">
        <ele>196</ele>
        <time>2007-03-25T13:01:07Z</time>
      </trkpt>
      <trkpt lat="44.31066" lon="0.51317">
        <ele>201</ele>
        <time>2007-03-25T13:01:07Z</time>
      </trkpt>
      <trkpt lat="44.31023" lon="0.5127">
        <ele>203</ele>
        <time>2007-03-25T13:01:07Z</time>
      </trkpt>
      <trkpt lat="44.30985" lon="0.51227">
        <ele>201</ele>
        <time>2007-03-25T13:01:07Z</time>
      </trkpt>
      <trkpt lat="44.3094" lon="0.51167">
        <ele>197</ele>
        <time>2007-03-25T13:01:07Z</time>
      </trkpt>
      <trkpt lat="44.30891" lon="0.51091">
        <ele>194</ele>
        <time>2007-03-25T13:01:07Z</time>
      </trkpt>
      <trkpt lat="44.30834" lon="0.50994">
        <ele>192</ele>
        <time>2007-03-25T13:01:07Z</time>
      </trkpt>
      <trkpt lat="44.30787" lon="0.50905">
        <ele>190</ele>
        <time>2007-03-25T13:01:07Z</time>
      </trkpt>
      <trkpt lat="44.30702" lon="0.50719">
        <ele>184</ele>
        <time>2007-03-25T13:01:07Z</time>
      </trkpt>
      <trkpt lat="44.30691" lon="0.50704">
        <ele>183</ele>
        <time>2007-03-25T13:01:07Z</time>
      </trkpt>
      <trkpt lat="44.3068" lon="0.50734">
        <ele>182</ele>
        <time>2007-03-25T13:01:07Z</time>
      </trkpt>
      <trkpt lat="44.30679" lon="0.50781">
        <ele>181</ele>
        <time>2007-03-25T13:01:07Z</time>
      </trkpt>
      <trkpt lat="44.30675" lon="0.50828">
        <ele>180</ele>
        <time>2007-03-25T13:01:07Z</time>
      </trkpt>
      <trkpt lat="44.30663" lon="0.50879">
        <ele>178</ele>
        <time>2007-03-25T13:01:07Z</time>
      </trkpt>
      <trkpt lat="44.30654" lon="0.50907">
        <ele>177</ele>
        <time>2007-03-25T13:01:07Z</time>
      </trkpt>
      <trkpt lat="44.30646" lon="0.50934">
        <ele>177</ele>
        <time>2007-03-25T13:01:07Z</time>
      </trkpt>
      <trkpt lat="44.30613" lon="0.50938">
        <ele>175</ele>
        <time>2007-03-25T13:01:07Z</time>
      </trkpt>
      <trkpt lat="44.30583" lon="0.50964">
        <ele>176</ele>
        <time>2007-03-25T13:01:07Z</time>
      </trkpt>
      <trkpt lat="44.30555" lon="0.50968">
        <ele>178</ele>
        <time>2007-03-25T13:01:07Z</time>
      </trkpt>
      <trkpt lat="44.30505" lon="0.50972">
        <ele>181</ele>
        <time>2007-03-25T13:01:07Z</time>
      </trkpt>
      <trkpt lat="44.30486" lon="0.50972">
        <ele>183</ele>
        <time>2007-03-25T13:01:07Z</time>
      </trkpt>
      <trkpt lat="44.30459" lon="0.50978">
        <ele>184</ele>
        <time>2007-03-25T13:01:07Z</time>
      </trkpt>
      <trkpt lat="44.3043" lon="0.5099">
        <ele>186</ele>
        <time>2007-03-25T13:01:07Z</time>
      </trkpt>
      <trkpt lat="44.30421" lon="0.51038">
        <ele>188</ele>
        <time>2007-03-25T13:01:07Z</time>
      </trkpt>
      <trkpt lat="44.30412" lon="0.51116">
        <ele>188</ele>
        <time>2007-03-25T13:01:07Z</time>
      </trkpt>
      <trkpt lat="44.3035" lon="0.51246">
        <ele>192</ele>
        <time>2007-03-25T13:01:07Z</time>
      </trkpt>
      <trkpt lat="44.30284" lon="0.51212">
        <ele>190</ele>
        <time>2007-03-25T13:01:07Z</time>
      </trkpt>
      <trkpt lat="44.30224" lon="0.51181">
        <ele>183</ele>
        <time>2007-03-25T13:01:07Z</time>
      </trkpt>
      <trkpt lat="44.30175" lon="0.51162">
        <ele>178</ele>
        <time>2007-03-25T13:01:07Z</time>
      </trkpt>
      <trkpt lat="44.30137" lon="0.51162">
        <ele>176</ele>
        <time>2007-03-25T13:01:07Z</time>
      </trkpt>
      <trkpt lat="44.30105" lon="0.51152">
        <ele>174</ele>
        <time>2007-03-25T13:01:07Z</time>
      </trkpt>
      <trkpt lat="44.30066" lon="0.51172">
        <ele>173</ele>
        <time>2007-03-25T13:01:07Z</time>
      </trkpt>
      <trkpt lat="44.30027" lon="0.51198">
        <ele>171</ele>
        <time>2007-03-25T13:01:07Z</time>
      </trkpt>
      <trkpt lat="44.29995" lon="0.51223">
        <ele>167</ele>
        <time>2007-03-25T13:01:07Z</time>
      </trkpt>
      <trkpt lat="44.29974" lon="0.51235">
        <ele>165</ele>
        <time>2007-03-25T13:01:07Z</time>
      </trkpt>
      <trkpt lat="44.29952" lon="0.51224">
        <ele>161</ele>
        <time>2007-03-25T13:01:07Z</time>
      </trkpt>
      <trkpt lat="44.29903" lon="0.51212">
        <ele>154</ele>
        <time>2007-03-25T13:01:07Z</time>
      </trkpt>
      <trkpt lat="44.29875" lon="0.51205">
        <ele>150</ele>
        <time>2007-03-25T13:01:07Z</time>
      </trkpt>
      <trkpt lat="44.29854" lon="0.51206">
        <ele>148</ele>
        <time>2007-03-25T13:01:07Z</time>
      </trkpt>
      <trkpt lat="44.29827" lon="0.51206">
        <ele>146</ele>
        <time>2007-03-25T13:01:07Z</time>
      </trkpt>
      <trkpt lat="44.29805" lon="0.51199">
        <ele>144</ele>
        <time>2007-03-25T13:01:07Z</time>
      </trkpt>
      <trkpt lat="44.29762" lon="0.51183">
        <ele>140</ele>
        <time>2007-03-25T13:01:07Z</time>
      </trkpt>
      <trkpt lat="44.29752" lon="0.51167">
        <ele>140</ele>
        <time>2007-03-25T13:01:07Z</time>
      </trkpt>
      <trkpt lat="44.29724" lon="0.5121">
        <ele>140</ele>
        <time>2007-03-25T13:01:07Z</time>
      </trkpt>
      <trkpt lat="44.29702" lon="0.51237">
        <ele>142</ele>
        <time>2007-03-25T13:01:07Z</time>
      </trkpt>
      <trkpt lat="44.29661" lon="0.51246">
        <ele>144</ele>
        <time>2007-03-25T13:01:07Z</time>
      </trkpt>
      <trkpt lat="44.29669" lon="0.51276">
        <ele>146</ele>
        <time>2007-03-25T13:01:07Z</time>
      </trkpt>
      <trkpt lat="44.29687" lon="0.5133">
        <ele>151</ele>
        <time>2007-03-25T13:01:07Z</time>
      </trkpt>
      <trkpt lat="44.29532" lon="0.51576">
        <ele>163</ele>
        <time>2007-03-25T13:01:07Z</time>
      </trkpt>
      <trkpt lat="44.29484" lon="0.51543">
        <ele>163</ele>
        <time>2007-03-25T13:01:07Z</time>
      </trkpt>
      <trkpt lat="44.2947" lon="0.51506">
        <ele>162</ele>
        <time>2007-03-25T13:01:07Z</time>
      </trkpt>
      <trkpt lat="44.29445" lon="0.51443">
        <ele>166</ele>
        <time>2007-03-25T13:01:07Z</time>
      </trkpt>
      <trkpt lat="44.29419" lon="0.51392">
        <ele>170</ele>
        <time>2007-03-25T13:01:07Z</time>
      </trkpt>
      <trkpt lat="44.29384" lon="0.51346">
        <ele>171</ele>
        <time>2007-03-25T13:01:07Z</time>
      </trkpt>
      <trkpt lat="44.29344" lon="0.51269">
        <ele>171</ele>
        <time>2007-03-25T13:01:07Z</time>
      </trkpt>
      <trkpt lat="44.29319" lon="0.51221">
        <ele>173</ele>
        <time>2007-03-25T13:01:07Z</time>
      </trkpt>
      <trkpt lat="44.29297" lon="0.51202">
        <ele>173</ele>
        <time>2007-03-25T13:01:07Z</time>
      </trkpt>
      <trkpt lat="44.29261" lon="0.512">
        <ele>173</ele>
        <time>2007-03-25T13:01:07Z</time>
      </trkpt>
      <trkpt lat="44.29205" lon="0.51197">
        <ele>172</ele>
        <time>2007-03-25T13:01:07Z</time>
      </trkpt>
      <trkpt lat="44.29166" lon="0.51192">
        <ele>171</ele>
        <time>2007-03-25T13:01:07Z</time>
      </trkpt>
      <trkpt lat="44.29153" lon="0.51175">
        <ele>171</ele>
        <time>2007-03-25T13:01:07Z</time>
      </trkpt>
      <trkpt lat="44.29139" lon="0.51161">
        <ele>170</ele>
        <time>2007-03-25T13:01:07Z</time>
      </trkpt>
      <trkpt lat="44.29121" lon="0.51153">
        <ele>170</ele>
        <time>2007-03-25T13:01:07Z</time>
      </trkpt>
      <trkpt lat="44.29095" lon="0.51158">
        <ele>170</ele>
        <time>2007-03-25T13:01:07Z</time>
      </trkpt>
      <trkpt lat="44.29074" lon="0.51174">
        <ele>172</ele>
        <time>2007-03-25T13:01:07Z</time>
      </trkpt>
      <trkpt lat="44.2905" lon="0.51205">
        <ele>173</ele>
        <time>2007-03-25T13:01:07Z</time>
      </trkpt>
      <trkpt lat="44.29012" lon="0.51158">
        <ele>171</ele>
        <time>2007-03-25T13:01:07Z</time>
      </trkpt>
      <trkpt lat="44.28996" lon="0.51133">
        <ele>170</ele>
        <time>2007-03-25T13:01:07Z</time>
      </trkpt>
      <trkpt lat="44.28975" lon="0.51098">
        <ele>169</ele>
        <time>2007-03-25T13:01:07Z</time>
      </trkpt>
      <trkpt lat="44.28942" lon="0.51054">
        <ele>169</ele>
        <time>2007-03-25T13:01:07Z</time>
      </trkpt>
      <trkpt lat="44.28908" lon="0.50997">
        <ele>170</ele>
        <time>2007-03-25T13:01:07Z</time>
      </trkpt>
      <trkpt lat="44.28891" lon="0.50966">
        <ele>170</ele>
        <time>2007-03-25T13:01:07Z</time>
      </trkpt>
      <trkpt lat="44.2886" lon="0.50911">
        <ele>170</ele>
        <time>2007-03-25T13:01:07Z</time>
      </trkpt>
      <trkpt lat="44.28817" lon="0.50996">
        <ele>170</ele>
        <time>2007-03-25T13:01:07Z</time>
      </trkpt>
    </trkseg>
  </trk>
</gpx>